CW9600 Weather Reports


time (UTC)temp
F
wind
direction
speed
knots
gust
knots
rain 1hr
in
rain 24hr
in
rain mn
in
humidity
%
barometer
mb
20260510234821 41 236 5.2 7.8 0.00 0.00 0.00 78
20260510234659 42 235 5.2 8.7 0.00 0.00 0.00 78
20260510234559 42 234 6.1 8.7 0.00 0.00 0.00 78
20260510234459 42 233 6.1 8.7 0.00 0.00 0.00 77
20260510234420 42 232 6.1 8.7 0.00 0.00 0.00 77
20260510234321 42 232 6.1 9.6 0.00 0.00 0.00 77
20260510234221 42 230 6.1 9.6 0.00 0.00 0.00 77
20260510234059 42 229 7.0 11.3 0.00 0.00 0.00 77
20260510234000 42 229 7.0 11.3 0.00 0.00 0.00 77
20260510233859 42 228 7.0 11.3 0.00 0.00 0.00 76
20260510233759 42 226 7.8 11.3 0.00 0.00 0.00 76
20260510233659 42 225 7.8 11.3 0.00 0.00 0.00 76
20260510233559 42 224 7.8 11.3 0.00 0.00 0.00 76
20260510233500 42 223 7.8 11.3 0.00 0.00 0.00 76
20260510233359 42 222 8.7 11.3 0.00 0.00 0.00 76
20260510233301 42 221 8.7 11.3 0.00 0.00 0.00 76
20260510233159 42 221 8.7 11.3 0.00 0.00 0.00 76
20260510233100 42 220 8.7 11.3 0.00 0.00 0.00 76
20260510232959 42 220 8.7 11.3 0.00 0.00 0.00 76
20260510232920 42 221 8.7 11.3 0.00 0.00 0.00 76
20260510232759 42 221 8.7 11.3 0.00 0.00 0.00 76
20260510232700 42 222 8.7 11.3 0.00 0.00 0.00 76
20260510232559 42 223 7.8 11.3 0.00 0.00 0.00 76
20260510232459 42 223 7.8 11.3 0.00 0.00 0.00 76
20260510232400 42 224 7.8 11.3 0.00 0.00 0.00 76
20260510232300 42 225 7.0 11.3 0.00 0.00 0.00 76
20260510232159 42 226 7.0 11.3 0.00 0.00 0.00 76
20260510232059 42 227 7.0 10.4 0.00 0.00 0.00 76
20260510231959 42 228 7.0 10.4 0.00 0.00 0.00 76
20260510231859 42 228 7.0 11.3 0.00 0.00 0.00 76
20260510231759 42 228 7.0 11.3 0.00 0.00 0.00 76
20260510231659 42 228 7.8 11.3 0.00 0.00 0.00 76
20260510231600 42 228 7.8 11.3 0.00 0.00 0.00 75
20260510231500 42 228 7.8 11.3 0.00 0.00 0.00 75
20260510231400 42 227 7.8 11.3 0.00 0.00 0.00 75
20260510231259 42 226 7.8 11.3 0.00 0.00 0.00 75
20260510231221 42 226 7.8 11.3 0.00 0.00 0.00 75
20260510231059 42 224 7.8 11.3 0.00 0.00 0.00 75
20260510230959 42 223 7.8 11.3 0.00 0.00 0.00 75
20260510230920 42 223 7.8 11.3 0.00 0.00 0.00 75
20260510230800 42 222 7.8 11.3 0.00 0.00 0.00 75
20260510230700 42 222 7.8 11.3 0.00 0.00 0.00 75
20260510230600 42 221 7.8 11.3 0.00 0.00 0.00 75
20260510230500 42 221 7.8 10.4 0.00 0.00 0.00 75
20260510230359 42 221 7.8 10.4 0.00 0.00 0.00 75
20260510230259 42 220 7.8 12.2 0.00 0.00 0.00 75
20260510230159 42 220 7.8 12.2 0.00 0.00 0.00 75
20260510230059 42 220 8.7 12.2 0.00 0.00 0.00 75
20260510230000 42 221 8.7 12.2 0.00 0.00 0.00 75
20260510225859 42 221 8.7 12.2 0.00 0.00 0.00 74
20260510225759 42 221 8.7 12.2 0.00 0.00 0.00 74
20260510225659 42 221 8.7 12.2 0.00 0.00 0.00 74
20260510225600 42 222 8.7 12.2 0.00 0.00 0.00 74
20260510225459 42 222 8.7 12.2 0.00 0.00 0.00 75
20260510225420 42 222 8.7 12.2 0.00 0.00 0.00 75
20260510225300 42 223 7.8 12.2 0.00 0.00 0.00 75
20260510225159 42 223 7.8 11.3 0.00 0.00 0.00 75
20260510225059 42 223 7.8 10.4 0.00 0.00 0.00 76
20260510225000 42 224 7.8 10.4 0.00 0.00 0.00 76
20260510224920 42 224 7.8 10.4 0.00 0.00 0.00 76
20260510224820 42 224 7.8 10.4 0.00 0.00 0.00 76
20260510224700 42 224 7.8 10.4 0.00 0.00 0.00 76
20260510224559 42 224 7.8 10.4 0.00 0.00 0.00 76
20260510224500 42 224 7.8 10.4 0.00 0.00 0.00 76
20260510224401 42 224 7.8 10.4 0.00 0.00 0.00 76
20260510224300 42 224 7.8 10.4 0.00 0.00 0.00 77
20260510224220 42 223 7.8 10.4 0.00 0.00 0.00 77
20260510224100 42 223 7.0 10.4 0.00 0.00 0.00 77
20260510223959 42 222 7.0 10.4 0.00 0.00 0.00 77
20260510223901 41 221 7.0 10.4 0.00 0.00 0.00 77
20260510223801 41 221 7.0 10.4 0.00 0.00 0.00 77
20260510223700 41 220 7.0 8.7 0.00 0.00 0.00 77
20260510223600 41 219 7.0 8.7 0.00 0.00 0.00 77
20260510223459 41 218 7.0 8.7 0.00 0.00 0.00 77
20260510223359 41 217 7.0 8.7 0.00 0.00 0.00 77
20260510223300 41 216 7.0 8.7 0.00 0.00 0.00 77
20260510223159 41 216 7.0 8.7 0.00 0.00 0.00 77
20260510223120 41 216 7.0 8.7 0.00 0.00 0.00 77
20260510222959 41 216 7.0 8.7 0.00 0.00 0.00 77
20260510222859 41 216 7.0 8.7 0.00 0.00 0.00 77
20260510222821 41 216 7.0 8.7 0.00 0.00 0.00 77
20260510222659 41 215 7.0 8.7 0.00 0.00 0.00 77
20260510222559 41 214 7.0 8.7 0.00 0.00 0.00 77
20260510222500 41 214 7.0 8.7 0.00 0.00 0.00 77
20260510222400 41 214 7.0 8.7 0.00 0.00 0.00 77
20260510222259 41 214 7.0 8.7 0.00 0.00 0.00 77
20260510222221 41 214 7.0 8.7 0.00 0.00 0.00 77
20260510222059 41 213 7.0 8.7 0.00 0.00 0.00 77
20260510222000 41 213 7.0 8.7 0.00 0.00 0.00 77
20260510221900 41 213 7.0 8.7 0.00 0.00 0.00 77
20260510221759 41 213 7.0 8.7 0.00 0.00 0.00 77
20260510221700 41 212 7.0 8.7 0.00 0.00 0.00 77
20260510221600 41 213 7.0 9.6 0.00 0.00 0.00 77
20260510221459 41 212 7.0 9.6 0.00 0.00 0.00 77
20260510221359 41 213 7.0 9.6 0.00 0.00 0.00 77
20260510221259 41 213 7.0 9.6 0.00 0.00 0.00 78
20260510221159 41 212 7.0 9.6 0.00 0.00 0.00 78
20260510221059 41 212 7.0 9.6 0.00 0.00 0.00 78
20260510221000 41 212 7.0 9.6 0.00 0.00 0.00 78
20260510220900 41 212 7.0 9.6 0.00 0.00 0.00 78
20260510220801 41 213 7.0 9.6 0.00 0.00 0.00 78
20260510220659 41 213 7.0 9.6 0.00 0.00 0.00 78
20260510220600 41 212 7.0 8.7 0.00 0.00 0.00 78
20260510220521 41 212 6.1 7.8 0.00 0.00 0.00 78
20260510220400 41 212 6.1 7.8 0.00 0.00 0.00 78
20260510220300 40 212 6.1 7.8 0.00 0.00 0.00 79
20260510220159 40 212 6.1 7.8 0.00 0.00 0.00 79
20260510220059 40 212 6.1 7.8 0.00 0.00 0.00 79
20260510220000 40 212 6.1 7.8 0.00 0.00 0.00 79
20260510215921 40 212 5.2 7.8 0.00 0.00 0.00 79
20260510215822 40 211 5.2 7.0 0.00 0.00 0.00 79
20260510215721 40 212 5.2 7.0 0.00 0.00 0.00 79
20260510215559 40 211 5.2 7.0 0.00 0.00 0.00 79
20260510215459 40 211 5.2 7.0 0.00 0.00 0.00 79
20260510215400 40 210 5.2 6.1 0.00 0.00 0.00 79
20260510215300 40 210 5.2 6.1 0.00 0.00 0.00 79
20260510215159 40 210 5.2 6.1 0.00 0.00 0.00 79
20260510215059 40 210 5.2 6.1 0.00 0.00 0.00 79
20260510215000 40 209 5.2 6.1 0.00 0.00 0.00 79
20260510214859 40 209 5.2 6.1 0.00 0.00 0.00 79
20260510214820 40 209 5.2 6.1 0.00 0.00 0.00 79
20260510214700 40 210 5.2 6.1 0.00 0.00 0.00 79
20260510214559 40 210 4.3 6.1 0.00 0.00 0.00 79
20260510214500 40 211 4.3 6.1 0.00 0.00 0.00 79
20260510214421 40 211 4.3 6.1 0.00 0.00 0.00 79
20260510214259 40 212 4.3 6.1 0.00 0.00 0.00 79
20260510214159 40 212 4.3 6.1 0.00 0.00 0.00 78
20260510214100 40 212 4.3 6.1 0.00 0.00 0.00 78
20260510213959 40 212 4.3 7.0 0.00 0.00 0.00 78
20260510213859 40 212 5.2 7.0 0.00 0.00 0.00 78
20260510213759 40 211 5.2 7.0 0.00 0.00 0.00 77
20260510213701 40 211 5.2 7.0 0.00 0.00 0.00 77
20260510213559 40 211 5.2 7.0 0.00 0.00 0.00 77
20260510213500 40 210 5.2 7.0 0.00 0.00 0.00 77
20260510213359 40 210 6.1 7.0 0.00 0.00 0.00 77
20260510213320 40 209 6.1 7.0 0.00 0.00 0.00 77
20260510213201 40 209 6.1 7.0 0.00 0.00 0.00 76
20260510213059 41 208 6.1 7.0 0.00 0.00 0.00 76
20260510212959 41 207 6.1 7.0 0.00 0.00 0.00 75
20260510212859 41 207 6.1 7.0 0.00 0.00 0.00 75
20260510212801 41 206 6.1 7.0 0.00 0.00 0.00 75
20260510212659 41 205 6.1 7.0 0.00 0.00 0.00 74
20260510212621 41 204 6.1 7.0 0.00 0.00 0.00 74
20260510212500 41 203 6.1 7.0 0.00 0.00 0.00 74
20260510212359 42 201 6.1 7.0 0.00 0.00 0.00 73
20260510212320 42 201 5.2 7.0 0.00 0.00 0.00 73
20260510212200 42 199 5.2 7.0 0.00 0.00 0.00 73
20260510212059 42 198 5.2 7.0 0.00 0.00 0.00 72
20260510211959 42 198 5.2 7.0 0.00 0.00 0.00 72
20260510211859 42 197 5.2 7.0 0.00 0.00 0.00 72
20260510211759 43 197 4.3 7.0 0.00 0.00 0.00 72
20260510211659 43 197 4.3 7.0 0.00 0.00 0.00 72
20260510211559 43 197 4.3 6.1 0.00 0.00 0.00 72
20260510211459 43 196 4.3 6.1 0.00 0.00 0.00 72
20260510211421 43 196 3.5 6.1 0.00 0.00 0.00 72
20260510211259 43 197 3.5 5.2 0.00 0.00 0.00 72
20260510211200 43 197 2.6 5.2 0.00 0.00 0.00 72
20260510211120 43 197 2.6 5.2 0.00 0.00 0.00 72
20260510211021 43 198 1.7 4.3 0.00 0.00 0.00 72
20260510210900 43 197 1.7 4.3 0.00 0.00 0.00 71
20260510210821 43 195 0.9 4.3 0.00 0.00 0.00 71
20260510210700 43 190 0.9 4.3 0.00 0.00 0.00 71
20260510210559 43 184 0.9 4.3 0.00 0.00 0.00 71
20260510210500 43 183 0.9 3.5 0.00 0.00 0.00 71
20260510210400 43 183 0.9 4.3 0.00 0.00 0.00 71
20260510210259 43 183 1.7 4.3 0.00 0.00 0.00 71
20260510210200 43 183 1.7 4.3 0.00 0.00 0.00 70
20260510210100 44 184 1.7 4.3 0.00 0.00 0.00 70
20260510205959 44 184 1.7 4.3 0.00 0.00 0.00 70
20260510205859 44 185 2.6 4.3 0.00 0.00 0.00 70
20260510205759 44 185 2.6 4.3 0.00 0.00 0.00 70
20260510205700 44 186 2.6 4.3 0.00 0.00 0.00 70
20260510205559 44 186 2.6 4.3 0.00 0.00 0.00 70
20260510205459 44 186 2.6 4.3 0.00 0.00 0.00 69
20260510205400 44 185 2.6 4.3 0.00 0.00 0.00 69
20260510205300 44 186 2.6 4.3 0.00 0.00 0.00 69
20260510205201 44 185 3.5 4.3 0.00 0.00 0.00 69
20260510205101 44 185 3.5 5.2 0.00 0.00 0.00 69
20260510204959 44 184 3.5 5.2 0.00 0.00 0.00 69
20260510204900 44 183 3.5 5.2 0.00 0.00 0.00 69
20260510204759 45 182 3.5 5.2 0.00 0.00 0.00 68
20260510204720 45 181 3.5 5.2 0.00 0.00 0.00 68
20260510204600 45 180 2.6 5.2 0.00 0.00 0.00 68
20260510204459 45 180 2.6 5.2 0.00 0.00 0.00 68
20260510204359 45 180 2.6 5.2 0.00 0.00 0.00 68
20260510204259 45 179 2.6 5.2 0.00 0.00 0.00 68
20260510204159 45 178 2.6 5.2 0.00 0.00 0.00 68
20260510204100 45 176 2.6 5.2 0.00 0.00 0.00 68
20260510204000 45 177 2.6 5.2 0.00 0.00 0.00 68
20260510203859 45 177 2.6 5.2 0.00 0.00 0.00 68
20260510203821 45 177 2.6 5.2 0.00 0.00 0.00 68
20260510203700 45 177 2.6 5.2 0.00 0.00 0.00 68
20260510203600 45 177 3.5 6.1 0.00 0.00 0.00 68
20260510203459 45 176 3.5 6.1 0.00 0.00 0.00 68
20260510203359 45 176 3.5 6.1 0.00 0.00 0.00 68
20260510203300 45 176 3.5 6.1 0.00 0.00 0.00 68
20260510203200 45 177 3.5 6.1 0.00 0.00 0.00 68
20260510203100 45 178 4.3 7.0 0.00 0.00 0.00 68
20260510202959 45 178 4.3 7.0 0.00 0.00 0.00 68
20260510202900 45 178 4.3 7.8 0.00 0.00 0.00 68
20260510202759 45 178 4.3 7.8 0.00 0.00 0.00 67
20260510202700 45 178 4.3 7.8 0.00 0.00 0.00 67
20260510202559 45 178 5.2 7.8 0.00 0.00 0.00 67
20260510202521 45 178 5.2 7.8 0.00 0.00 0.00 67
20260510202421 45 178 5.2 7.8 0.00 0.00 0.00 67
20260510202259 45 179 5.2 7.8 0.00 0.00 0.00 67
20260510202159 45 179 5.2 7.8 0.00 0.00 0.00 67
20260510202100 45 179 5.2 7.8 0.00 0.00 0.00 66
20260510202000 45 179 5.2 7.8 0.00 0.00 0.00 66
20260510201900 45 180 5.2 7.0 0.00 0.00 0.00 66
20260510201759 45 180 5.2 7.0 0.00 0.00 0.00 66
20260510201700 45 180 4.3 7.0 0.00 0.00 0.00 66
20260510201601 45 180 4.3 7.0 0.00 0.00 0.00 66
20260510201500 45 180 4.3 7.0 0.00 0.00 0.00 66
20260510201359 45 179 4.3 7.0 0.00 0.00 0.00 66
20260510201321 45 179 4.3 7.0 0.00 0.00 0.00 66
20260510201200 46 180 4.3 7.0 0.00 0.00 0.00 66
20260510201100 46 180 4.3 7.0 0.00 0.00 0.00 66
20260510201000 46 180 4.3 7.0 0.00 0.00 0.00 66
20260510200921 46 180 4.3 7.0 0.00 0.00 0.00 66
20260510200759 46 180 4.3 7.0 0.00 0.00 0.00 66
20260510200659 46 180 3.5 6.1 0.00 0.00 0.00 66
20260510200559 46 180 3.5 6.1 0.00 0.00 0.00 65
20260510200459 46 181 3.5 6.1 0.00 0.00 0.00 65
20260510200359 46 181 3.5 6.1 0.00 0.00 0.00 65
20260510200300 46 181 3.5 6.1 0.00 0.00 0.00 65
20260510200221 46 180 3.5 6.1 0.00 0.00 0.00 65
20260510200059 46 180 3.5 6.1 0.00 0.00 0.00 65
20260510195959 46 179 3.5 6.1 0.00 0.00 0.00 65
20260510195900 46 179 3.5 6.1 0.00 0.00 0.00 64
20260510195820 46 179 3.5 6.1 0.00 0.00 0.00 64
20260510195659 47 179 3.5 6.1 0.00 0.00 0.00 64
20260510195559 47 179 3.5 6.1 0.00 0.00 0.00 64
20260510195500 47 179 3.5 5.2 0.00 0.00 0.00 64
20260510195400 47 178 3.5 5.2 0.00 0.00 0.00 63
20260510195300 47 179 3.5 5.2 0.00 0.00 0.00 63
20260510195200 47 179 3.5 5.2 0.00 0.00 0.00 63
20260510195100 47 178 3.5 6.1 0.00 0.00 0.00 63
20260510195001 47 177 3.5 6.1 0.00 0.00 0.00 63
20260510194859 47 177 3.5 6.1 0.00 0.00 0.00 63
20260510194821 47 176 3.5 6.1 0.00 0.00 0.00 63
20260510194659 47 176 3.5 6.1 0.00 0.00 0.00 63
20260510194621 47 175 3.5 6.1 0.00 0.00 0.00 63
20260510194500 48 174 3.5 6.1 0.00 0.00 0.00 63
20260510194359 48 175 3.5 6.1 0.00 0.00 0.00 62
20260510194321 48 174 3.5 6.1 0.00 0.00 0.00 62
20260510194159 48 173 3.5 6.1 0.00 0.00 0.00 62
20260510194100 48 173 2.6 5.2 0.00 0.00 0.00 62
20260510194000 48 173 2.6 5.2 0.00 0.00 0.00 62
20260510193900 48 173 2.6 5.2 0.00 0.00 0.00 62
20260510193800 48 172 2.6 5.2 0.00 0.00 0.00 62
20260510193659 48 171 2.6 5.2 0.00 0.00 0.00 62
20260510193559 48 170 2.6 6.1 0.00 0.00 0.00 62
20260510193500 48 169 2.6 6.1 0.00 0.00 0.00 62
20260510193359 48 170 2.6 6.1 0.00 0.00 0.00 62
20260510193321 48 170 2.6 6.1 0.00 0.00 0.00 62
20260510193222 48 170 2.6 6.1 0.00 0.00 0.00 62
20260510193059 48 171 2.6 6.1 0.00 0.00 0.00 62
20260510193000 48 171 2.6 6.1 0.00 0.00 0.00 62
20260510192859 48 171 2.6 6.1 0.00 0.00 0.00 62
20260510192759 48 171 2.6 6.1 0.00 0.00 0.00 62
20260510192700 48 172 2.6 6.1 0.00 0.00 0.00 62
20260510192621 49 172 2.6 6.1 0.00 0.00 0.00 62
20260510192500 49 171 2.6 4.3 0.00 0.00 0.00 62
20260510192359 49 170 2.6 4.3 0.00 0.00 0.00 62
20260510192301 49 169 2.6 4.3 0.00 0.00 0.00 62
20260510192200 49 167 2.6 4.3 0.00 0.00 0.00 61
20260510192121 49 167 1.7 4.3 0.00 0.00 0.00 61
20260510191959 49 165 1.7 4.3 0.00 0.00 0.00 61
20260510191900 49 164 1.7 4.3 0.00 0.00 0.00 61
20260510191800 49 163 1.7 4.3 0.00 0.00 0.00 61
20260510191721 49 162 1.7 4.3 0.00 0.00 0.00 61
20260510191600 50 160 1.7 4.3 0.00 0.00 0.00 61
20260510191500 50 160 1.7 4.3 0.00 0.00 0.00 61
20260510191400 50 160 0.9 4.3 0.00 0.00 0.00 61
20260510191300 50 160 0.9 4.3 0.00 0.00 0.00 61
20260510191200 50 160 1.7 4.3 0.00 0.00 0.00 60
20260510191059 50 160 1.7 4.3 0.00 0.00 0.00 60
20260510191021 50 160 1.7 4.3 0.00 0.00 0.00 60
20260510190900 50 160 1.7 4.3 0.00 0.00 0.00 60
20260510190800 50 160 1.7 4.3 0.00 0.00 0.00 60
20260510190659 50 160 0.9 4.3 0.00 0.00 0.00 60
20260510190621 50 160 0.9 4.3 0.00 0.00 0.00 60
20260510190500 50 160 0.9 4.3 0.00 0.00 0.00 59
20260510190400 50 160 0.9 4.3 0.00 0.00 0.00 58
20260510190300 50 160 1.7 4.3 0.00 0.00 0.00 59
20260510190200 50 161 1.7 3.5 0.00 0.00 0.00 59
20260510190100 50 160 1.7 3.5 0.00 0.00 0.00 59
20260510190000 50 162 1.7 5.2 0.00 0.00 0.00 58
20260510185900 51 163 1.7 5.2 0.00 0.00 0.00 58
20260510185800 51 165 1.7 5.2 0.00 0.00 0.00 58
20260510185659 51 166 2.6 5.2 0.00 0.00 0.00 58
20260510185600 51 167 2.6 5.2 0.00 0.00 0.00 57
20260510185459 51 167 2.6 5.2 0.00 0.00 0.00 57
20260510185421 51 167 2.6 5.2 0.00 0.00 0.00 57
20260510185300 51 167 2.6 5.2 0.00 0.00 0.00 57
20260510185200 51 167 2.6 5.2 0.00 0.00 0.00 56
20260510185059 51 168 2.6 6.1 0.00 0.00 0.00 57
20260510185000 51 168 2.6 6.1 0.00 0.00 0.00 57
20260510184901 51 168 2.6 6.1 0.00 0.00 0.00 57
20260510184800 51 168 1.7 6.1 0.00 0.00 0.00 56
20260510184700 51 168 2.6 6.1 0.00 0.00 0.00 56
20260510184600 51 168 1.7 6.1 0.00 0.00 0.00 56
20260510184500 51 168 2.6 6.1 0.00 0.00 0.00 56
20260510184400 51 169 2.6 6.1 0.00 0.00 0.00 56
20260510184300 51 170 2.6 6.1 0.00 0.00 0.00 56
20260510184200 51 171 2.6 6.1 0.00 0.00 0.00 56
20260510184100 51 170 2.6 5.2 0.00 0.00 0.00 56
20260510184021 51 170 2.6 5.2 0.00 0.00 0.00 56
20260510183900 51 169 2.6 5.2 0.00 0.00 0.00 55
20260510183800 51 169 3.5 5.2 0.00 0.00 0.00 55
20260510183659 51 169 3.5 5.2 0.00 0.00 0.00 55
20260510183621 51 168 3.5 5.2 0.00 0.00 0.00 55
20260510183459 51 167 2.6 5.2 0.00 0.00 0.00 56
20260510183401 51 165 3.5 5.2 0.00 0.00 0.00 55
20260510183300 51 165 3.5 5.2 0.00 0.00 0.00 55
20260510183159 51 164 3.5 5.2 0.00 0.00 0.00 55
20260510183101 51 164 3.5 6.1 0.00 0.00 0.00 55
20260510183001 51 163 3.5 6.1 0.00 0.00 0.00 55
20260510182921 51 163 3.5 6.1 0.00 0.00 0.00 55
20260510182759 51 163 3.5 6.1 0.00 0.00 0.00 54
20260510182700 52 161 3.5 6.1 0.00 0.00 0.00 55
20260510182600 52 161 3.5 6.1 0.00 0.00 0.00 54
20260510182500 52 160 3.5 6.1 0.00 0.00 0.00 54
20260510182400 52 159 2.6 6.1 0.00 0.00 0.00 54
20260510182300 52 157 2.6 6.1 0.00 0.00 0.00 54
20260510182200 52 155 2.6 6.1 0.00 0.00 0.00 54
20260510182059 52 155 2.6 5.2 0.00 0.00 0.00 54
20260510181959 52 156 2.6 5.2 0.00 0.00 0.00 54
20260510181900 52 156 1.7 5.2 0.00 0.00 0.00 54
20260510181759 52 157 2.6 5.2 0.00 0.00 0.00 54
20260510181700 52 161 2.6 5.2 0.00 0.00 0.00 54
20260510181600 52 163 2.6 5.2 0.00 0.00 0.00 54
20260510181521 52 164 2.6 5.2 0.00 0.00 0.00 54
20260510181400 52 167 2.6 5.2 0.00 0.00 0.00 54
20260510181300 52 168 2.6 5.2 0.00 0.00 0.00 54
20260510181200 52 170 2.6 6.1 0.00 0.00 0.00 54
20260510181100 52 169 2.6 6.1 0.00 0.00 0.00 54
20260510181000 52 168 2.6 6.1 0.00 0.00 0.00 54
20260510180859 52 167 2.6 6.1 0.00 0.00 0.00 53
20260510180800 52 165 2.6 6.1 0.00 0.00 0.00 53
20260510180721 52 163 3.5 6.1 0.00 0.00 0.00 53
20260510180600 52 162 3.5 6.1 0.00 0.00 0.00 53
20260510180501 52 162 2.6 6.1 0.00 0.00 0.00 53
20260510180400 52 162 2.6 6.1 0.00 0.00 0.00 53
20260510180301 52 159 2.6 6.1 0.00 0.00 0.00 52
20260510180200 52 153 2.6 5.2 0.00 0.00 0.00 52
20260510180100 52 146 2.6 5.2 0.00 0.00 0.00 52
20260510180021 52 141 2.6 5.2 0.00 0.00 0.00 52
20260510175900 52 131 2.6 5.2 0.00 0.00 0.00 52
20260510175800 52 123 3.5 6.1 0.00 0.00 0.00 53
20260510175701 52 117 2.6 6.1 0.00 0.00 0.00 53
20260510175600 52 116 2.6 6.1 0.00 0.00 0.00 53
20260510175500 52 116 2.6 6.1 0.00 0.00 0.00 54
20260510175401 52 115 3.5 6.1 0.00 0.00 0.00 52
20260510175300 52 120 3.5 6.1 0.00 0.00 0.00 52
20260510175200 52 124 3.5 6.1 0.00 0.00 0.00 52
20260510175100 52 128 3.5 6.1 0.00 0.00 0.00 52
20260510174959 52 134 2.6 6.1 0.00 0.00 0.00 52
20260510174900 52 144 2.6 6.1 0.00 0.00 0.00 53
20260510174800 52 154 2.6 6.1 0.00 0.00 0.00 52
20260510174700 52 161 2.6 5.2 0.00 0.00 0.00 52
20260510174601 52 165 2.6 5.2 0.00 0.00 0.00 52
20260510174500 52 172 3.5 6.1 0.00 0.00 0.00 52
20260510174400 52 175 3.5 6.1 0.00 0.01 0.00 54
20260510174321 52 176 3.5 6.1 0.00 0.01 0.00 54
20260510174200 52 177 3.5 6.1 0.00 0.01 0.00 54
20260510174100 52 178 3.5 6.1 0.00 0.01 0.00 53
20260510174000 52 180 3.5 6.1 0.00 0.01 0.00 53
20260510173900 52 180 3.5 6.1 0.00 0.01 0.00 53
20260510173800 52 177 3.5 6.1 0.00 0.01 0.00 53
20260510173700 52 175 3.5 6.1 0.00 0.01 0.00 54
20260510173600 52 172 3.5 7.0 0.00 0.01 0.00 54
20260510173521 52 167 4.3 7.0 0.00 0.01 0.00 54
20260510173400 52 153 4.3 8.7 0.00 0.01 0.00 53
20260510173300 52 153 4.3 8.7 0.00 0.01 0.00 54
20260510173200 52 152 4.3 8.7 0.00 0.01 0.00 54
20260510173100 52 152 4.3 8.7 0.00 0.01 0.00 53
20260510173000 52 151 4.3 8.7 0.00 0.01 0.00 52
20260510172900 52 149 4.3 8.7 0.00 0.01 0.00 52
20260510172821 52 150 4.3 8.7 0.00 0.01 0.00 52
20260510172700 52 149 3.5 8.7 0.00 0.01 0.00 53
20260510172600 52 142 3.5 8.7 0.00 0.01 0.00 53
20260510172501 52 143 3.5 8.7 0.00 0.01 0.00 53
20260510172359 52 145 3.5 8.7 0.00 0.01 0.00 53
20260510172300 52 140 3.5 8.7 0.00 0.01 0.00 53
20260510172221 52 135 3.5 8.7 0.00 0.01 0.00 53
20260510172100 52 130 4.3 8.7 0.00 0.01 0.00 53
20260510172000 52 124 4.3 8.7 0.00 0.01 0.00 52
20260510171900 52 117 4.3 8.7 0.00 0.01 0.00 53
20260510171800 52 112 5.2 9.6 0.00 0.01 0.00 52
20260510171700 52 111 5.2 9.6 0.00 0.01 0.00 52
20260510171600 52 110 5.2 9.6 0.00 0.01 0.00 52
20260510171521 52 108 5.2 9.6 0.00 0.01 0.00 52
20260510171421 53 104 5.2 9.6 0.00 0.01 0.00 52
20260510171300 53 100 5.2 9.6 0.00 0.01 0.00 52
20260510171159 53 100 5.2 9.6 0.00 0.01 0.00 52
20260510171100 53 96 5.2 9.6 0.00 0.01 0.00 52
20260510171000 53 93 5.2 9.6 0.00 0.01 0.00 52
20260510170900 53 94 4.3 9.6 0.00 0.01 0.00 53
20260510170800 53 94 4.3 8.7 0.00 0.01 0.00 52
20260510170659 53 93 4.3 8.7 0.00 0.01 0.00 53
20260510170600 53 94 4.3 8.7 0.00 0.01 0.00 53
20260510170500 53 94 5.2 8.7 0.00 0.01 0.00 53
20260510170400 53 95 5.2 8.7 0.00 0.01 0.00 53
20260510170300 53 94 5.2 8.7 0.00 0.01 0.00 52
20260510170200 53 94 5.2 8.7 0.00 0.01 0.00 53
20260510170101 53 98 5.2 8.7 0.00 0.01 0.00 53
20260510170000 53 103 5.2 8.7 0.00 0.01 0.00 53
20260510165900 53 103 5.2 8.7 0.00 0.01 0.00 52
20260510165800 53 104 5.2 8.7 0.00 0.01 0.00 52
20260510165700 53 107 4.3 7.8 0.00 0.01 0.00 52
20260510165600 53 110 4.3 7.8 0.00 0.01 0.00 51
20260510165521 53 111 4.3 7.8 0.00 0.01 0.00 51
20260510165400 53 111 4.3 10.4 0.00 0.01 0.00 52
20260510165301 53 114 4.3 10.4 0.00 0.01 0.00 51
20260510165200 53 115 4.3 10.4 0.00 0.01 0.00 51
20260510165100 53 111 4.3 10.4 0.00 0.01 0.00 51
20260510165001 53 106 4.3 10.4 0.00 0.01 0.00 51
20260510164900 53 103 5.2 10.4 0.00 0.01 0.00 52
20260510164822 53 101 4.3 10.4 0.00 0.01 0.00 52
20260510164700 53 98 4.3 10.4 0.00 0.01 0.00 51
20260510164559 53 94 4.3 10.4 0.00 0.01 0.00 51
20260510164500 53 93 4.3 10.4 0.00 0.01 0.00 51
20260510164400 53 92 4.3 8.7 0.00 0.01 0.00 51
20260510164300 53 88 4.3 8.7 0.00 0.01 0.00 51
20260510164200 53 89 5.2 9.6 0.00 0.01 0.00 51
20260510164121 53 88 5.2 9.6 0.00 0.01 0.00 51
20260510164000 53 90 4.3 9.6 0.00 0.01 0.00 54
20260510163900 53 93 4.3 9.6 0.00 0.01 0.00 53
20260510163800 53 96 4.3 9.6 0.00 0.01 0.00 53
20260510163701 53 98 4.3 9.6 0.00 0.01 0.00 53
20260510163600 53 102 4.3 9.6 0.00 0.01 0.00 53
20260510163500 53 107 4.3 9.6 0.00 0.01 0.00 52
20260510163400 53 111 4.3 9.6 0.00 0.01 0.00 52
20260510163300 53 118 4.3 9.6 0.00 0.01 0.00 52
20260510163200 53 121 3.5 9.6 0.00 0.01 0.00 53
20260510163100 53 126 3.5 8.7 0.00 0.01 0.00 53
20260510163000 53 129 3.5 7.0 0.00 0.01 0.00 52
20260510162900 52 126 4.3 9.6 0.00 0.01 0.00 53
20260510162800 52 124 4.3 9.6 0.00 0.01 0.00 53
20260510162700 52 124 4.3 9.6 0.00 0.01 0.00 52
20260510162600 52 123 4.3 9.6 0.00 0.01 0.00 53
20260510162500 52 119 5.2 9.6 0.00 0.01 0.00 52
20260510162400 52 115 5.2 9.6 0.00 0.01 0.00 53
20260510162300 52 112 5.2 9.6 0.00 0.01 0.00 53
20260510162200 52 107 6.1 9.6 0.00 0.01 0.00 53
20260510162100 52 104 6.1 9.6 0.00 0.01 0.00 52
20260510162000 52 101 5.2 9.6 0.00 0.01 0.00 53
20260510161900 52 97 5.2 9.6 0.00 0.01 0.00 52
20260510161800 52 92 6.1 9.6 0.00 0.01 0.00 52
20260510161700 52 87 6.1 9.6 0.00 0.01 0.00 52
20260510161600 52 80 6.1 9.6 0.00 0.01 0.00 52
20260510161500 52 76 6.1 9.6 0.00 0.01 0.00 53
20260510161400 52 76 6.1 9.6 0.00 0.02 0.00 52
20260510161300 52 76 6.1 9.6 0.00 0.02 0.00 53
20260510161200 52 79 6.1 9.6 0.00 0.02 0.00 53
20260510161100 52 81 6.1 9.6 0.00 0.02 0.00 53
20260510161000 52 83 6.1 9.6 0.00 0.02 0.00 53
20260510160900 52 84 5.2 9.6 0.00 0.02 0.00 53
20260510160800 52 86 5.2 9.6 0.00 0.02 0.00 53
20260510160700 53 89 5.2 9.6 0.00 0.02 0.00 53
20260510160601 53 92 4.3 9.6 0.00 0.02 0.00 53
20260510160500 53 90 5.2 9.6 0.00 0.02 0.00 52
20260510160400 53 85 5.2 9.6 0.00 0.02 0.00 52
20260510160321 53 83 5.2 9.6 0.00 0.02 0.00 52
20260510160200 53 72 5.2 11.3 0.00 0.02 0.00 53
20260510160100 53 65 5.2 11.3 0.00 0.02 0.00 53
20260510160022 53 62 6.1 11.3 0.00 0.02 0.00 53
20260510155900 53 62 6.1 11.3 0.00 0.02 0.00 53
20260510155821 53 60 6.1 11.3 0.00 0.02 0.00 53
20260510155700 53 59 7.0 11.3 0.00 0.02 0.00 53
20260510155621 53 61 7.0 13.0 0.00 0.02 0.00 53
20260510155500 53 65 7.0 13.0 0.00 0.02 0.00 53
20260510155400 53 64 7.0 13.0 0.00 0.02 0.00 53
20260510155300 53 63 7.0 13.0 0.00 0.02 0.00 53
20260510155200 53 67 6.1 13.0 0.00 0.02 0.00 52
20260510155100 53 71 6.1 13.0 0.00 0.02 0.00 52
20260510155000 53 74 5.2 13.0 0.00 0.02 0.00 53
20260510154900 53 76 5.2 13.0 0.00 0.02 0.00 52
20260510154821 53 80 5.2 13.0 0.00 0.02 0.00 52
20260510154700 53 83 5.2 13.0 0.00 0.02 0.00 52
20260510154600 53 84 5.2 11.3 0.00 0.02 0.00 53
20260510154521 53 86 5.2 11.3 0.00 0.03 0.00 53
20260510154400 53 92 5.2 10.4 0.00 0.03 0.00 55
20260510154321 52 96 5.2 10.4 0.00 0.03 0.00 55
20260510154200 52 99 5.2 10.4 0.00 0.03 0.00 52
20260510154121 52 99 5.2 11.3 0.00 0.03 0.00 52
20260510154000 52 100 5.2 11.3 0.00 0.03 0.00 54
20260510153921 52 101 5.2 11.3 0.00 0.03 0.00 54
20260510153821 52 103 6.1 11.3 0.00 0.03 0.00 53
20260510153700 52 102 6.1 11.3 0.00 0.03 0.00 54
20260510153600 52 100 6.1 11.3 0.00 0.03 0.00 54
20260510153500 52 97 6.1 11.3 0.00 0.03 0.00 54
20260510153421 52 96 6.1 11.3 0.00 0.03 0.00 54
20260510153300 52 93 6.1 11.3 0.00 0.03 0.00 54
20260510153200 52 88 6.1 11.3 0.00 0.03 0.00 54
20260510153121 52 84 6.1 11.3 0.00 0.03 0.00 54
20260510153000 52 81 6.1 11.3 0.00 0.03 0.00 53
20260510152900 52 80 6.1 11.3 0.00 0.03 0.00 54
20260510152800 52 81 6.1 11.3 0.00 0.03 0.00 54
20260510152700 52 81 6.1 11.3 0.00 0.03 0.00 54
20260510152600 52 79 6.1 10.4 0.00 0.03 0.00 54
20260510152500 52 76 6.1 10.4 0.00 0.03 0.00 54
20260510152400 52 74 6.1 9.6 0.00 0.03 0.00 54
20260510152321 52 72 6.1 9.6 0.00 0.03 0.00 54
20260510152200 52 68 6.1 9.6 0.00 0.03 0.00 54
20260510152121 52 68 5.2 9.6 0.00 0.03 0.00 54
20260510152000 52 70 6.1 9.6 0.00 0.03 0.00 54
20260510151900 52 67 5.2 9.6 0.00 0.03 0.00 54
20260510151800 52 63 5.2 9.6 0.00 0.03 0.00 54
20260510151700 52 63 5.2 9.6 0.00 0.03 0.00 54
20260510151600 52 64 5.2 9.6 0.00 0.03 0.00 54
20260510151500 52 68 6.1 10.4 0.00 0.03 0.00 54
20260510151400 52 69 6.1 10.4 0.00 0.03 0.00 53
20260510151300 52 68 6.1 10.4 0.00 0.03 0.00 54
20260510151200 52 70 6.1 10.4 0.00 0.03 0.00 52
20260510151100 52 68 6.1 10.4 0.00 0.03 0.00 52
20260510151000 52 64 6.1 10.4 0.00 0.03 0.00 52
20260510150900 52 62 6.1 10.4 0.00 0.03 0.00 52
20260510150821 52 61 6.1 10.4 0.00 0.03 0.00 52
20260510150721 52 60 6.1 10.4 0.00 0.03 0.00 52
20260510150621 52 59 6.1 10.4 0.00 0.03 0.00 52
20260510150500 52 58 5.2 10.4 0.00 0.03 0.00 53
20260510150400 53 58 5.2 10.4 0.00 0.03 0.00 52
20260510150300 53 60 5.2 10.4 0.00 0.03 0.00 53
20260510150200 53 62 5.2 10.4 0.00 0.03 0.00 53
20260510150000 53 72 5.2 11.3 0.00 0.03 0.00 52
20260510145900 53 77 6.1 11.3 0.00 0.03 0.00 52
20260510145800 53 79 6.1 11.3 0.00 0.03 0.00 52
20260510145700 53 82 6.1 11.3 0.00 0.03 0.00 52
20260510145600 53 85 6.1 11.3 0.00 0.03 0.00 52
20260510145500 53 88 6.1 11.3 0.00 0.03 0.00 51
20260510145421 53 90 7.0 11.3 0.00 0.03 0.00 51
20260510145300 53 90 7.0 11.3 0.00 0.03 0.00 52
20260510145200 53 92 7.0 11.3 0.00 0.03 0.00 51
20260510145100 53 94 6.1 11.3 0.00 0.03 0.00 50
20260510145000 53 92 7.0 12.2 0.00 0.03 0.00 50
20260510144900 53 89 6.1 12.2 0.00 0.03 0.00 50
20260510144800 54 88 7.0 12.2 0.00 0.03 0.00 50
20260510144721 54 86 7.0 12.2 0.00 0.03 0.00 50
20260510144600 54 84 7.0 12.2 0.00 0.03 0.00 50
20260510144500 54 82 7.0 12.2 0.00 0.03 0.00 50
20260510144400 54 84 7.0 13.9 0.00 0.03 0.00 51
20260510144300 54 79 7.0 13.9 0.00 0.03 0.00 50
20260510144200 54 73 7.8 13.9 0.00 0.03 0.00 50
20260510144100 54 68 7.0 13.9 0.00 0.03 0.00 50
20260510144000 54 64 7.0 13.9 0.00 0.03 0.00 51
20260510143900 54 55 7.0 13.9 0.00 0.03 0.00 52
20260510143801 54 49 7.0 13.9 0.00 0.03 0.00 52
20260510143700 54 42 7.0 13.9 0.00 0.03 0.00 54
20260510143600 53 36 7.0 13.9 0.00 0.03 0.00 53
20260510143500 53 31 6.1 13.9 0.00 0.03 0.00 54
20260510143400 53 24 6.1 10.4 0.00 0.03 0.00 53
20260510143300 53 30 6.1 12.2 0.00 0.03 0.00 53
20260510143200 53 36 7.0 12.2 0.00 0.03 0.00 53
20260510143100 53 39 7.0 12.2 0.00 0.03 0.00 53
20260510143000 53 39 7.0 12.2 0.00 0.03 0.00 53
20260510142900 53 42 7.0 12.2 0.00 0.03 0.00 53
20260510142800 53 45 7.0 12.2 0.00 0.03 0.00 52
20260510142700 53 45 6.1 12.2 0.00 0.03 0.00 53
20260510142600 53 47 6.1 12.2 0.00 0.03 0.00 53
20260510142521 53 45 6.1 12.2 0.00 0.03 0.00 53
20260510142421 53 45 6.1 12.2 0.00 0.03 0.00 52
20260510142300 53 40 6.1 10.4 0.00 0.03 0.00 53
20260510142200 53 37 6.1 10.4 0.00 0.03 0.00 53
20260510142100 53 35 6.1 10.4 0.00 0.03 0.00 52
20260510142000 53 37 7.0 10.4 0.00 0.03 0.00 52
20260510141900 53 40 7.0 11.3 0.00 0.03 0.00 52
20260510141821 53 42 7.0 12.2 0.00 0.03 0.00 52
20260510141721 53 43 7.0 12.2 0.00 0.03 0.00 51
20260510141600 54 45 7.0 12.2 0.00 0.03 0.00 52
20260510141500 54 49 7.0 12.2 0.00 0.03 0.00 52
20260510141421 54 51 7.0 12.2 0.00 0.03 0.00 52
20260510141300 54 58 6.1 12.2 0.00 0.03 0.00 52
20260510141200 54 62 6.1 12.2 0.00 0.03 0.00 53
20260510141100 54 64 6.1 12.2 0.00 0.03 0.00 52
20260510141000 54 65 6.1 12.2 0.00 0.03 0.00 52
20260510140900 53 69 6.1 12.2 0.00 0.03 0.00 52
20260510140800 53 72 6.1 10.4 0.00 0.03 0.00 53
20260510140721 53 74 5.2 10.4 0.00 0.03 0.00 53
20260510140601 53 75 6.1 10.4 0.00 0.03 0.00 52
20260510140500 53 74 6.1 10.4 0.00 0.03 0.00 54
20260510140400 53 66 6.1 9.6 0.00 0.03 0.00 54
20260510140300 53 60 6.1 9.6 0.00 0.03 0.00 53
20260510140200 53 53 6.1 9.6 0.00 0.03 0.00 53
20260510140100 53 48 6.1 12.2 0.00 0.03 0.00 52
20260510140000 52 46 7.0 12.2 0.00 0.03 0.00 53
20260510135900 52 47 7.0 13.0 0.00 0.03 0.00 53
20260510135800 52 43 7.0 13.0 0.00 0.03 0.00 53
20260510135700 52 42 7.0 13.0 0.00 0.03 0.00 53
20260510135600 52 39 7.0 13.0 0.00 0.03 0.00 55
20260510135500 52 39 7.0 13.0 0.00 0.03 0.00 54
20260510135400 53 41 7.8 15.6 0.00 0.03 0.00 53
20260510135300 53 43 7.0 15.6 0.00 0.03 0.00 52
20260510135200 54 49 7.0 15.6 0.00 0.03 0.00 53
20260510135100 54 58 7.0 15.6 0.00 0.03 0.00 51
20260510135000 54 61 6.1 15.6 0.00 0.03 0.00 54
20260510134921 54 60 6.1 15.6 0.00 0.03 0.00 54
20260510134800 54 60 6.1 15.6 0.00 0.03 0.00 54
20260510134700 54 62 6.1 15.6 0.00 0.03 0.00 54
20260510134600 54 61 6.1 15.6 0.00 0.03 0.00 53
20260510134500 54 58 6.1 15.6 0.00 0.03 0.00 52
20260510134400 53 59 6.1 11.3 0.00 0.03 0.00 53
20260510134300 53 58 6.1 11.3 0.00 0.03 0.00 53
20260510134200 53 56 6.1 11.3 0.00 0.03 0.00 55
20260510134100 53 53 6.1 11.3 0.00 0.03 0.00 54
20260510134000 52 50 6.1 11.3 0.00 0.03 0.00 54
20260510133900 52 48 6.1 11.3 0.00 0.03 0.00 54
20260510133800 52 47 7.0 11.3 0.00 0.03 0.00 55
20260510133700 52 47 7.0 11.3 0.00 0.03 0.00 56
20260510133600 52 50 7.0 12.2 0.00 0.03 0.00 56
20260510133500 52 52 7.0 12.2 0.00 0.03 0.00 56
20260510133400 52 54 7.0 12.2 0.00 0.03 0.00 55
20260510133300 52 54 7.0 12.2 0.00 0.03 0.00 55
20260510133221 52 54 7.8 12.2 0.00 0.03 0.00 55
20260510133100 52 54 7.8 12.2 0.00 0.03 0.00 56
20260510133000 52 56 7.8 12.2 0.00 0.03 0.00 56
20260510132901 52 59 7.8 12.2 0.00 0.03 0.00 55
20260510132800 52 60 7.8 12.2 0.00 0.03 0.00 55
20260510132701 52 59 7.8 12.2 0.00 0.03 0.00 55
20260510132600 52 58 7.8 12.2 0.00 0.03 0.00 55
20260510132521 52 57 7.8 12.2 0.00 0.03 0.00 55
20260510132400 53 54 7.8 12.2 0.00 0.03 0.00 55
20260510132300 53 53 7.8 12.2 0.00 0.03 0.00 55
20260510132200 53 50 7.8 15.6 0.00 0.03 0.00 54
20260510132100 53 49 7.8 15.6 0.00 0.03 0.00 54
20260510132000 53 49 7.8 15.6 0.00 0.03 0.00 54
20260510131900 53 48 7.8 15.6 0.00 0.03 0.00 53
20260510131801 53 46 7.8 15.6 0.00 0.03 0.00 53
20260510131700 53 47 7.8 15.6 0.00 0.03 0.00 52
20260510131600 54 46 7.8 15.6 0.00 0.03 0.00 52
20260510131500 54 47 7.0 15.6 0.00 0.03 0.00 52
20260510131400 54 48 7.0 15.6 0.00 0.03 0.00 52
20260510131300 54 50 7.0 15.6 0.00 0.03 0.00 54
20260510131200 54 53 7.0 15.6 0.00 0.03 0.00 53
20260510131100 54 54 7.0 13.0 0.00 0.03 0.00 53
20260510131000 53 51 7.0 13.0 0.00 0.03 0.00 53
20260510130900 53 51 7.0 13.0 0.00 0.03 0.00 54
20260510130821 53 53 7.0 13.0 0.00 0.03 0.00 54
20260510130701 53 54 7.0 13.0 0.00 0.03 0.00 53
20260510130600 53 54 7.0 13.0 0.00 0.03 0.00 54
20260510130500 53 53 7.8 13.0 0.00 0.03 0.00 54
20260510130400 52 51 7.0 13.0 0.00 0.03 0.00 54
20260510130300 52 47 7.0 13.0 0.00 0.03 0.00 53
20260510130200 52 46 7.0 13.0 0.00 0.03 0.00 52
20260510130100 52 44 7.0 12.2 0.00 0.03 0.00 52
20260510130000 52 46 7.8 12.2 0.00 0.03 0.00 52
20260510125900 52 46 7.8 12.2 0.00 0.03 0.00 53
20260510125800 52 45 7.8 13.0 0.00 0.03 0.00 55
20260510125700 52 45 7.8 13.0 0.00 0.03 0.00 56
20260510125600 52 45 7.8 13.0 0.00 0.03 0.00 55
20260510125500 52 47 7.8 13.9 0.00 0.03 0.00 55
20260510125421 52 48 8.7 13.9 0.00 0.03 0.00 55
20260510125300 52 49 8.7 13.9 0.00 0.03 0.00 54
20260510125200 52 49 8.7 13.9 0.00 0.03 0.00 53
20260510125100 52 48 8.7 13.9 0.00 0.03 0.00 53
20260510125000 52 48 8.7 13.9 0.00 0.03 0.00 53
20260510124900 53 48 7.8 13.9 0.00 0.03 0.00 54
20260510124821 53 48 7.8 13.9 0.00 0.03 0.00 54
20260510124700 53 48 7.8 13.9 0.00 0.03 0.00 53
20260510124600 53 47 7.8 13.9 0.00 0.03 0.00 54
20260510124500 53 49 7.0 13.9 0.00 0.03 0.00 54
20260510124400 53 53 7.0 13.0 0.00 0.03 0.00 56
20260510124300 53 54 7.0 11.3 0.00 0.03 0.00 56
20260510124200 52 54 7.0 11.3 0.00 0.03 0.00 54
20260510124121 52 53 7.8 13.9 0.00 0.03 0.00 54
20260510124021 52 52 7.8 13.9 0.00 0.03 0.00 54
20260510123900 52 50 7.8 16.5 0.00 0.03 0.00 53
20260510123800 52 50 8.7 16.5 0.00 0.03 0.00 53
20260510123700 52 48 8.7 16.5 0.00 0.03 0.00 53
20260510123621 52 47 8.7 16.5 0.00 0.03 0.00 53
20260510123500 53 41 8.7 16.5 0.00 0.03 0.00 52
20260510123400 53 39 8.7 16.5 0.00 0.03 0.00 51
20260510123300 53 41 8.7 16.5 0.00 0.03 0.00 51
20260510123200 53 43 8.7 16.5 0.00 0.03 0.00 51
20260510123121 54 45 7.8 16.5 0.00 0.03 0.00 51
20260510123000 54 45 7.0 16.5 0.00 0.03 0.00 54
20260510122900 53 46 7.0 12.2 0.00 0.03 0.00 54
20260510122800 53 45 7.0 12.2 0.00 0.03 0.00 53
20260510122701 53 46 7.0 12.2 0.00 0.03 0.00 52
20260510122621 53 49 7.0 12.2 0.00 0.03 0.00 52
20260510122500 53 54 7.0 12.2 0.00 0.03 0.00 50
20260510122400 53 54 7.0 13.0 0.00 0.03 0.00 51
20260510122300 53 51 7.8 16.5 0.00 0.03 0.00 53
20260510122200 53 47 7.8 16.5 0.00 0.03 0.00 52
20260510122100 53 48 7.8 16.5 0.00 0.03 0.00 53
20260510122000 52 49 8.7 16.5 0.00 0.03 0.00 52
20260510121900 53 49 8.7 16.5 0.00 0.03 0.00 53
20260510121821 53 49 8.7 16.5 0.00 0.03 0.00 53
20260510121700 53 46 8.7 16.5 0.00 0.03 0.00 53
20260510121600 53 45 8.7 16.5 0.00 0.03 0.00 54
20260510121500 53 44 8.7 16.5 0.00 0.03 0.00 54
20260510121400 53 45 8.7 16.5 0.00 0.03 0.00 53
20260510121321 53 47 7.8 13.9 0.00 0.03 0.00 53
20260510121200 53 51 7.8 13.9 0.00 0.03 0.00 53
20260510121100 53 48 7.8 13.9 0.00 0.03 0.00 55
20260510121000 53 47 7.8 12.2 0.00 0.03 0.00 54
20260510120900 53 47 7.8 12.2 0.00 0.03 0.00 54
20260510120821 53 47 7.8 12.2 0.00 0.03 0.00 54
20260510120721 53 50 7.8 12.2 0.00 0.03 0.00 53
20260510120600 53 50 7.8 12.2 0.00 0.03 0.00 53
20260510120521 53 50 7.8 12.2 0.00 0.03 0.00 53
20260510120400 53 49 7.8 12.2 0.00 0.03 0.00 53
20260510120321 53 46 7.0 12.2 0.00 0.03 0.00 53
20260510120200 53 46 7.0 12.2 0.00 0.03 0.00 54
20260510120100 53 47 7.0 12.2 0.00 0.03 0.00 55
20260510120021 53 48 7.0 12.2 0.00 0.03 0.00 55
20260510115921 53 49 7.0 12.2 0.00 0.03 0.00 54
20260510115800 53 48 7.0 11.3 0.00 0.03 0.00 58
20260510115700 53 46 7.0 11.3 0.00 0.03 0.00 58
20260510115600 53 47 7.0 11.3 0.00 0.03 0.00 58
20260510115500 53 47 7.0 11.3 0.00 0.03 0.00 57
20260510115400 53 49 7.0 12.2 0.00 0.03 0.00 57
20260510115300 53 47 7.8 13.0 0.00 0.03 0.00 57
20260510115200 53 46 7.8 13.0 0.00 0.03 0.00 56
20260510115100 53 45 7.8 13.0 0.00 0.03 0.00 55
20260510115000 53 44 7.8 13.0 0.00 0.03 0.00 55
20260510114900 53 46 7.8 13.0 0.00 0.03 0.00 55
20260510114800 53 45 7.8 13.0 0.00 0.03 0.00 56
20260510114721 53 44 7.8 13.0 0.00 0.03 0.00 56
20260510114600 53 43 8.7 13.0 0.00 0.03 0.00 55
20260510114500 53 44 8.7 13.0 0.00 0.03 0.00 53
20260510114400 53 42 8.7 13.0 0.00 0.03 0.00 52
20260510114300 53 43 8.7 13.0 0.00 0.03 0.00 50
20260510114221 53 42 8.7 15.6 0.00 0.03 0.00 50
20260510114100 53 41 8.7 15.6 0.00 0.03 0.00 55
20260510114000 53 40 8.7 15.6 0.00 0.03 0.00 53
20260510113900 53 42 8.7 15.6 0.00 0.03 0.00 53
20260510113800 53 45 8.7 15.6 0.00 0.03 0.00 55
20260510113700 53 46 8.7 15.6 0.00 0.03 0.00 55
20260510113600 53 47 8.7 15.6 0.00 0.03 0.00 58
20260510113521 53 46 7.8 15.6 0.00 0.03 0.00 58
20260510113421 52 46 7.8 15.6 0.00 0.03 0.00 58
20260510113300 52 47 7.8 15.6 0.00 0.03 0.00 57
20260510113200 52 49 7.8 13.0 0.00 0.03 0.00 56
20260510113100 52 49 7.8 13.0 0.00 0.03 0.00 55
20260510113001 52 48 7.8 13.0 0.00 0.03 0.00 56
20260510112900 52 44 7.8 13.0 0.00 0.03 0.00 55
20260510112800 52 43 7.8 13.0 0.00 0.03 0.00 54
20260510112721 52 43 7.8 13.0 0.00 0.03 0.00 54
20260510112621 52 43 7.8 12.2 0.00 0.03 0.00 53
20260510112500 52 42 7.8 12.2 0.00 0.03 0.00 54
20260510112400 52 42 7.8 12.2 0.00 0.03 0.00 54
20260510112300 52 39 7.8 12.2 0.00 0.03 0.00 55
20260510112221 52 39 7.8 12.2 0.00 0.03 0.00 55
20260510112100 52 39 7.8 13.0 0.00 0.03 0.00 55
20260510112000 52 40 7.8 13.0 0.00 0.03 0.00 56
20260510111900 52 41 7.8 13.0 0.00 0.03 0.00 57
20260510111801 52 41 7.8 13.0 0.00 0.03 0.00 56
20260510111700 51 39 7.0 13.0 0.00 0.03 0.00 55
20260510111600 51 41 7.8 13.0 0.00 0.03 0.00 54
20260510111521 51 42 7.8 13.0 0.00 0.03 0.00 54
20260510111400 51 41 7.8 13.0 0.00 0.03 0.00 57
20260510111300 51 40 7.8 13.0 0.00 0.03 0.00 59
20260510111200 50 40 7.0 13.0 0.00 0.03 0.00 62
20260510111100 50 42 7.0 11.3 0.00 0.03 0.00 61
20260510111000 50 41 6.1 11.3 0.00 0.03 0.00 62
20260510110900 50 41 6.1 11.3 0.00 0.03 0.00 62
20260510110800 50 39 7.0 11.3 0.00 0.03 0.00 61
20260510110700 50 40 7.0 11.3 0.00 0.03 0.00 61
20260510110600 50 38 7.0 12.2 0.00 0.03 0.00 61
20260510110500 50 36 7.0 12.2 0.00 0.03 0.00 62
20260510110421 50 38 7.0 12.2 0.00 0.03 0.00 62
20260510110300 50 42 7.0 12.2 0.00 0.03 0.00 62
20260510110200 50 41 7.0 12.2 0.00 0.03 0.00 62
20260510110100 50 39 7.0 12.2 0.00 0.03 0.00 62
20260510110000 51 40 7.0 12.2 0.00 0.03 0.00 62
20260510105900 51 41 7.0 12.2 0.00 0.03 0.00 62
20260510105800 51 41 7.8 12.2 0.00 0.03 0.00 62
20260510105700 51 38 7.8 15.6 0.00 0.03 0.00 63
20260510105600 51 37 7.8 15.6 0.00 0.03 0.00 63
20260510105500 51 38 7.8 15.6 0.00 0.03 0.00 63
20260510105400 50 37 8.7 15.6 0.00 0.03 0.00 63
20260510105300 50 34 8.7 15.6 0.00 0.03 0.00 62
20260510105200 50 33 8.7 15.6 0.00 0.03 0.00 61
20260510105100 50 32 8.7 15.6 0.00 0.03 0.00 61
20260510105000 51 31 8.7 15.6 0.00 0.03 0.00 61
20260510104900 51 31 8.7 15.6 0.00 0.03 0.00 60
20260510104800 51 32 8.7 15.6 0.00 0.03 0.00 60
20260510104700 51 33 7.8 13.0 0.00 0.03 0.00 60
20260510104600 51 33 7.8 13.0 0.00 0.03 0.00 60
20260510104521 52 31 7.8 13.0 0.00 0.03 0.00 60
20260510104401 52 31 7.8 15.6 0.00 0.03 0.00 61
20260510104321 52 32 7.8 15.6 0.00 0.03 0.00 61
20260510104200 52 35 7.8 15.6 0.00 0.03 0.00 60
20260510104100 52 37 7.0 15.6 0.00 0.03 0.00 60
20260510104000 52 38 7.0 15.6 0.00 0.03 0.00 62
20260510103900 51 36 7.0 15.6 0.00 0.03 0.00 61
20260510103800 51 36 7.0 15.6 0.00 0.03 0.00 59
20260510103700 51 37 7.0 15.6 0.00 0.03 0.00 59
20260510103600 51 37 7.8 15.6 0.00 0.03 0.00 60
20260510103500 51 37 7.0 15.6 0.00 0.03 0.00 61
20260510103400 50 39 7.0 13.9 0.00 0.03 0.00 61
20260510103300 50 39 7.8 13.9 0.00 0.03 0.00 60
20260510103221 50 38 7.8 13.9 0.00 0.03 0.00 60
20260510103100 50 37 7.8 13.9 0.00 0.03 0.00 59
20260510103000 50 37 7.8 13.9 0.00 0.03 0.00 59
20260510102900 50 37 7.8 13.9 0.00 0.03 0.00 59
20260510102800 50 36 8.7 13.9 0.00 0.03 0.00 59
20260510102700 50 36 8.7 13.9 0.00 0.03 0.00 59
20260510102600 51 36 7.8 13.0 0.00 0.03 0.00 59
20260510102500 51 38 7.8 13.0 0.00 0.03 0.00 58
20260510102400 51 42 8.7 13.0 0.00 0.03 0.00 57
20260510102321 51 45 8.7 15.6 0.00 0.03 0.00 57
20260510102200 51 47 8.7 15.6 0.00 0.03 0.00 57
20260510102100 51 48 8.7 15.6 0.00 0.03 0.00 57
20260510102000 52 46 8.7 15.6 0.00 0.03 0.00 57
20260510101900 52 49 8.7 15.6 0.00 0.03 0.00 57
20260510101800 52 53 7.8 15.6 0.00 0.03 0.00 58
20260510101721 52 55 7.8 15.6 0.00 0.03 0.00 58
20260510101600 52 59 7.8 15.6 0.00 0.03 0.00 55
20260510101521 52 59 7.8 15.6 0.00 0.03 0.00 55
20260510101400 52 60 7.8 15.6 0.00 0.03 0.00 57
20260510101300 52 58 7.8 13.9 0.00 0.03 0.00 56
20260510101221 53 58 7.8 13.9 0.00 0.03 0.00 56
20260510101100 53 62 7.8 13.9 0.00 0.03 0.00 56
20260510101021 53 67 7.8 13.9 0.00 0.03 0.00 56
20260510100900 53 69 7.8 13.9 0.00 0.03 0.00 56
20260510100800 53 70 7.8 13.9 0.00 0.03 0.00 55
20260510100701 53 70 8.7 13.9 0.00 0.03 0.00 57
20260510100600 53 70 7.8 13.0 0.00 0.03 0.00 56
20260510100521 53 69 8.7 13.0 0.00 0.03 0.00 56
20260510100401 53 63 8.7 13.0 0.00 0.03 0.00 54
20260510100300 53 62 7.8 13.0 0.00 0.03 0.00 55
20260510100221 53 63 7.8 13.0 0.00 0.03 0.00 55
20260510100100 53 61 7.8 13.0 0.00 0.03 0.00 56
20260510100000 53 57 7.8 13.0 0.00 0.03 0.00 56
20260510095900 53 55 7.8 13.0 0.00 0.03 0.00 56
20260510095800 53 52 7.8 13.0 0.00 0.03 0.00 58
20260510095721 53 51 7.8 13.9 0.00 0.03 0.00 58
20260510095600 53 49 7.8 13.9 0.00 0.03 0.00 58
20260510095500 52 50 7.8 16.5 0.00 0.03 0.00 59
20260510095400 52 51 7.8 16.5 0.00 0.03 0.00 60
20260510095305 52 51 8.7 16.5 0.00 0.03 0.00 60
20260510095201 52 50 8.7 16.5 0.00 0.03 0.00 61
20260510095100 52 49 8.7 16.5 0.00 0.03 0.00 61
20260510095000 52 51 8.7 16.5 0.00 0.03 0.00 59
20260510094921 51 52 8.7 16.5 0.00 0.03 0.00 59
20260510094800 51 50 8.7 16.5 0.00 0.03 0.00 61
20260510094700 51 49 8.7 16.5 0.00 0.03 0.00 60
20260510094621 51 49 8.7 16.5 0.00 0.03 0.00 60
20260510094500 51 53 8.7 13.9 0.00 0.03 0.00 60
20260510094400 51 53 8.7 13.9 0.00 0.03 0.00 61
20260510094301 51 52 8.7 13.9 0.00 0.03 0.00 62
20260510094200 51 55 7.8 13.9 0.00 0.03 0.00 62
20260510094100 51 57 8.7 13.9 0.00 0.03 0.00 62
20260510094000 51 57 7.8 13.9 0.00 0.03 0.00 63
20260510093900 51 55 7.8 13.9 0.00 0.03 0.00 63
20260510093800 51 55 7.8 17.4 0.00 0.03 0.00 61
20260510093721 50 54 7.8 17.4 0.00 0.03 0.00 61
20260510093600 50 53 8.7 17.4 0.00 0.03 0.00 61
20260510093500 50 49 7.8 17.4 0.00 0.03 0.00 62
20260510093421 50 48 8.7 17.4 0.00 0.03 0.00 62
20260510093300 50 50 8.7 17.4 0.00 0.03 0.00 62
20260510093200 50 47 7.8 17.4 0.00 0.03 0.00 63
20260510093100 50 45 7.8 17.4 0.00 0.03 0.00 62
20260510093021 50 44 7.8 17.4 0.00 0.03 0.00 62
20260510092900 50 45 7.8 17.4 0.00 0.03 0.00 62
20260510092800 50 46 7.8 13.9 0.00 0.03 0.00 62
20260510092700 50 46 7.0 13.9 0.00 0.03 0.00 62
20260510092600 50 46 7.0 13.9 0.00 0.03 0.00 62
20260510092500 50 46 7.8 13.9 0.00 0.03 0.00 62
20260510092400 50 45 7.8 13.9 0.00 0.03 0.00 63
20260510092321 50 43 7.8 13.9 0.00 0.03 0.00 63
20260510092200 50 42 7.8 13.9 0.00 0.03 0.00 63
20260510092100 50 42 7.8 13.9 0.00 0.03 0.00 62
20260510092000 50 42 8.7 13.9 0.00 0.03 0.00 62
20260510091900 50 42 8.7 13.9 0.00 0.03 0.00 61
20260510091800 50 43 8.7 13.9 0.00 0.03 0.00 61
20260510091700 50 44 8.7 13.9 0.00 0.03 0.00 62
20260510091600 50 44 8.7 13.9 0.00 0.03 0.00 62
20260510091521 50 44 8.7 13.9 0.00 0.03 0.00 62
20260510091400 50 43 8.7 13.9 0.00 0.03 0.00 63
20260510091300 50 43 8.7 13.9 0.00 0.03 0.00 64
20260510091200 50 41 9.6 13.9 0.00 0.03 0.00 66
20260510091100 50 39 9.6 16.5 0.00 0.03 0.00 65
20260510091000 50 36 9.6 16.5 0.00 0.03 0.00 66
20260510090900 50 33 9.6 16.5 0.00 0.03 0.00 67
20260510090800 49 30 9.6 16.5 0.00 0.03 0.00 68
20260510090701 49 27 9.6 16.5 0.00 0.03 0.00 68
20260510090600 49 26 9.6 16.5 0.00 0.03 0.00 69
20260510090500 49 26 9.6 16.5 0.00 0.03 0.00 70
20260510090400 48 25 10.4 16.5 0.00 0.03 0.00 69
20260510090300 48 26 9.6 16.5 0.00 0.03 0.00 69
20260510090200 48 27 9.6 16.5 0.00 0.03 0.00 69
20260510090100 48 27 9.6 16.5 0.00 0.03 0.00 70
20260510090000 48 28 9.6 16.5 0.00 0.03 0.00 70
20260510085900 48 30 9.6 16.5 0.00 0.03 0.00 70
20260510085800 48 31 9.6 16.5 0.00 0.03 0.00 70
20260510085700 48 33 9.6 16.5 0.00 0.03 0.00 69
20260510085600 48 34 8.7 16.5 0.00 0.03 0.00 70
20260510085500 48 34 8.7 16.5 0.00 0.03 0.00 70
20260510085421 48 34 8.7 16.5 0.00 0.03 0.00 70
20260510085300 49 35 7.8 13.9 0.00 0.03 0.00 70
20260510085200 49 36 7.8 13.9 0.00 0.03 0.00 70
20260510085100 49 38 7.8 13.9 0.00 0.03 0.00 70
20260510085000 48 40 7.8 13.9 0.00 0.03 0.00 70
20260510084900 48 40 7.8 13.9 0.00 0.03 0.00 71
20260510084800 48 41 7.8 13.9 0.00 0.03 0.00 71
20260510084700 48 41 7.8 13.9 0.00 0.03 0.00 71
20260510084600 48 40 7.8 13.9 0.00 0.03 0.00 72
20260510084500 48 40 7.8 13.9 0.00 0.03 0.00 71
20260510084400 48 39 7.8 13.9 0.00 0.03 0.00 71
20260510084300 48 37 8.7 13.9 0.00 0.03 0.00 71
20260510084201 48 37 7.8 13.9 0.00 0.03 0.00 72
20260510084100 48 37 8.7 13.9 0.00 0.03 0.00 72
20260510084000 48 35 8.7 13.9 0.00 0.03 0.00 72
20260510083900 48 34 8.7 15.6 0.00 0.03 0.00 72
20260510083800 48 33 8.7 15.6 0.00 0.03 0.00 71
20260510083701 48 31 9.6 15.6 0.00 0.03 0.00 71
20260510083601 48 30 9.6 15.6 0.00 0.03 0.00 70
20260510083500 48 30 9.6 15.6 0.00 0.03 0.00 70
20260510083400 48 30 9.6 15.6 0.00 0.03 0.00 70
20260510083301 49 31 9.6 15.6 0.00 0.03 0.00 69
20260510083200 49 30 9.6 15.6 0.00 0.03 0.00 69
20260510083100 49 30 9.6 15.6 0.00 0.03 0.00 69
20260510083000 49 30 9.6 15.6 0.00 0.03 0.00 68
20260510082900 50 31 9.6 15.6 0.00 0.03 0.00 68
20260510082800 50 32 8.7 15.6 0.00 0.03 0.00 68
20260510082721 50 34 8.7 15.6 0.00 0.03 0.00 68
20260510082600 50 36 7.8 15.6 0.00 0.03 0.00 67
20260510082521 51 36 7.8 15.6 0.00 0.03 0.00 67
20260510082400 51 38 7.8 15.6 0.00 0.03 0.00 66
20260510082321 51 37 7.8 15.6 0.00 0.03 0.00 66
20260510082200 51 38 7.8 15.6 0.00 0.03 0.00 66
20260510082100 52 40 7.0 13.0 0.00 0.03 0.00 67
20260510082000 52 40 7.0 13.0 0.00 0.03 0.00 68
20260510081921 51 40 7.0 13.0 0.00 0.03 0.00 68
20260510081800 51 39 7.8 13.0 0.00 0.03 0.00 69
20260510081700 51 39 7.8 15.6 0.00 0.03 0.00 69
20260510081600 51 38 8.7 16.5 0.00 0.03 0.00 69
20260510081500 51 39 8.7 16.5 0.00 0.03 0.00 69
20260510081400 51 38 8.7 16.5 0.00 0.03 0.00 70
20260510081300 51 40 8.7 16.5 0.00 0.03 0.00 70
20260510081221 50 41 8.7 16.5 0.00 0.03 0.00 70
20260510081100 50 42 8.7 16.5 0.00 0.03 0.00 70
20260510081000 50 45 8.7 16.5 0.00 0.03 0.00 69
20260510080900 50 46 8.7 16.5 0.00 0.03 0.00 69
20260510080800 50 50 8.7 16.5 0.00 0.03 0.00 69
20260510080722 50 51 8.7 16.5 0.00 0.03 0.00 69
20260510080601 50 52 8.7 13.9 0.00 0.03 0.00 70
20260510080521 50 51 8.7 13.9 0.00 0.03 0.00 70
20260510080400 50 50 8.7 13.9 0.00 0.03 0.00 70
20260510080300 50 50 8.7 13.9 0.00 0.03 0.00 70
20260510080200 50 49 7.8 13.9 0.00 0.03 0.00 70
20260510080121 50 47 7.8 13.9 0.00 0.03 0.00 70
20260510080021 50 46 7.8 13.9 0.00 0.03 0.00 70
20260510075900 50 42 7.8 13.9 0.00 0.03 0.00 71
20260510075800 49 37 7.8 13.0 0.00 0.03 0.00 71
20260510075700 49 36 7.8 13.0 0.00 0.03 0.00 72
20260510075600 49 36 7.8 13.9 0.00 0.03 0.00 71
20260510075500 49 37 7.8 13.9 0.00 0.03 0.00 71
20260510075402 49 36 7.8 16.5 0.00 0.03 0.00 72
20260510075300 49 35 7.8 16.5 0.00 0.03 0.00 72
20260510075200 49 36 8.7 16.5 0.00 0.03 0.00 72
20260510075100 49 33 8.7 16.5 0.00 0.03 0.00 72
20260510075000 49 33 8.7 16.5 0.00 0.03 0.00 73
20260510074900 49 35 8.7 16.5 0.00 0.03 0.00 72
20260510074821 49 35 8.7 16.5 0.00 0.03 0.00 72
20260510074700 49 35 9.6 16.5 0.00 0.03 0.00 73
20260510074600 49 33 10.4 16.5 0.00 0.03 0.00 72
20260510074500 49 31 10.4 18.2 0.00 0.03 0.00 73
20260510074400 49 31 10.4 18.2 0.00 0.03 0.00 73
20260510074300 49 30 10.4 18.2 0.00 0.03 0.00 73
20260510074200 49 29 9.6 18.2 0.00 0.03 0.00 74
20260510074100 49 31 9.6 18.2 0.00 0.03 0.00 73
20260510074000 48 30 10.4 18.2 0.00 0.03 0.00 73
20260510073900 48 28 10.4 18.2 0.00 0.03 0.00 73
20260510073800 48 27 9.6 18.2 0.00 0.03 0.00 72
20260510073700 49 28 9.6 18.2 0.00 0.03 0.00 72
20260510073600 49 28 8.7 18.2 0.00 0.03 0.00 73
20260510073500 49 30 8.7 13.0 0.00 0.03 0.00 72
20260510073400 49 30 8.7 13.0 0.00 0.03 0.00 73
20260510073300 49 31 8.7 13.9 0.00 0.03 0.00 74
20260510073200 49 30 8.7 13.9 0.00 0.03 0.00 73
20260510073121 49 29 8.7 13.9 0.00 0.03 0.00 73
20260510073000 49 31 7.8 13.9 0.00 0.03 0.00 74
20260510072900 49 33 7.8 13.9 0.00 0.03 0.00 74
20260510072800 49 33 7.8 13.9 0.00 0.03 0.00 74
20260510072700 49 34 7.8 13.9 0.00 0.03 0.00 74
20260510072621 49 35 7.8 13.9 0.00 0.03 0.00 74
20260510072500 48 35 7.8 13.9 0.00 0.03 0.00 75
20260510072400 48 35 7.8 13.9 0.00 0.03 0.00 76
20260510072300 48 35 7.8 13.9 0.00 0.03 0.00 76
20260510072200 48 35 7.8 13.9 0.00 0.03 0.00 76
20260510072122 48 35 7.8 13.9 0.00 0.03 0.00 76
20260510072000 48 34 7.8 13.9 0.00 0.03 0.00 76
20260510071900 47 35 7.8 13.9 0.00 0.03 0.00 76
20260510071800 47 36 7.8 13.9 0.00 0.03 0.00 76
20260510071721 47 36 7.8 13.9 0.00 0.03 0.00 76
20260510071621 47 36 7.8 13.9 0.00 0.03 0.00 75
20260510071500 47 35 7.8 13.9 0.00 0.03 0.00 75
20260510071400 47 37 7.0 13.9 0.00 0.03 0.00 75
20260510071300 47 38 7.0 12.2 0.00 0.03 0.00 75
20260510071221 47 40 7.0 10.4 0.00 0.03 0.00 75
20260510071100 47 38 7.0 16.5 0.00 0.03 0.00 75
20260510071021 47 37 7.0 16.5 0.00 0.03 0.00 75
20260510070900 48 38 7.0 16.5 0.00 0.03 0.00 75
20260510070800 48 38 7.8 16.5 0.00 0.03 0.00 75
20260510070700 48 37 7.0 16.5 0.00 0.03 0.00 75
20260510070600 48 37 7.0 16.5 0.00 0.03 0.00 75
20260510070500 48 38 7.8 16.5 0.00 0.03 0.00 75
20260510070400 48 40 7.8 16.5 0.00 0.03 0.00 75
20260510070300 48 41 7.8 16.5 0.00 0.03 0.00 76
20260510070200 48 41 7.8 16.5 0.00 0.03 0.00 76
20260510070100 48 45 7.8 13.9 0.00 0.03 0.00 77
20260510070000 48 47 7.8 13.9 0.00 0.03 0.00 77
20260510065900 48 48 7.8 13.9 0.00 0.03 0.00 77
20260510065800 48 47 7.8 13.9 0.00 0.03 0.00 77
20260510065700 47 47 7.8 13.9 0.00 0.03 0.00 77
20260510065600 47 50 7.8 13.9 0.00 0.03 0.00 77
20260510065500 47 50 7.8 13.9 0.00 0.03 0.00 76
20260510065400 47 48 7.8 13.9 0.00 0.03 0.00 77
20260510065322 47 47 7.8 13.9 0.00 0.03 0.00 77
20260510065200 47 43 7.8 16.5 0.00 0.03 0.00 77
20260510065100 47 41 7.8 16.5 0.00 0.03 0.00 77
20260510065000 47 41 7.8 16.5 0.00 0.03 0.00 77
20260510064900 47 41 7.0 16.5 0.00 0.03 0.00 78
20260510064800 47 41 7.0 16.5 0.00 0.03 0.00 78
20260510064721 46 40 7.0 16.5 0.00 0.03 0.00 78
20260510064601 46 39 7.0 16.5 0.00 0.03 0.00 78
20260510064500 46 37 7.0 16.5 0.00 0.03 0.00 78
20260510064400 46 35 7.0 16.5 0.00 0.03 0.00 79
20260510064307 46 35 6.1 16.5 0.00 0.03 0.00 79
20260510064200 46 35 6.1 10.4 0.00 0.03 0.00 79
20260510064100 46 35 6.1 10.4 0.00 0.03 0.00 79
20260510064000 46 34 6.1 10.4 0.00 0.03 0.00 80
20260510063900 46 31 6.1 10.4 0.00 0.03 0.00 80
20260510063800 46 32 6.1 10.4 0.00 0.03 0.00 80
20260510063700 46 33 6.1 10.4 0.00 0.03 0.00 80
20260510063600 46 34 6.1 10.4 0.00 0.03 0.00 80
20260510063500 45 36 6.1 9.6 0.00 0.03 0.00 80
20260510063400 46 36 6.1 10.4 0.00 0.03 0.00 80
20260510063300 45 36 6.1 11.3 0.00 0.03 0.00 80
20260510063221 45 36 6.1 11.3 0.00 0.03 0.00 80
20260510063100 46 38 6.1 11.3 0.00 0.03 0.00 79
20260510063000 46 37 6.1 11.3 0.00 0.03 0.00 79
20260510062900 46 38 6.1 11.3 0.00 0.03 0.00 80
20260510062800 46 36 6.1 11.3 0.00 0.03 0.00 80
20260510062700 46 34 6.1 11.3 0.00 0.03 0.00 80
20260510062600 46 32 6.1 11.3 0.00 0.03 0.00 80
20260510062500 46 31 6.1 11.3 0.00 0.03 0.00 80
20260510062421 45 30 6.1 11.3 0.00 0.03 0.00 80
20260510062321 45 31 6.1 11.3 0.00 0.03 0.00 80
20260510062200 45 30 7.0 11.3 0.00 0.03 0.00 80
20260510062100 45 26 7.0 11.3 0.00 0.03 0.00 81
20260510062000 45 25 7.0 11.3 0.00 0.03 0.00 81
20260510061900 45 25 7.0 11.3 0.00 0.03 0.00 81
20260510061800 45 25 7.0 11.3 0.00 0.03 0.00 81
20260510061721 45 24 7.0 11.3 0.00 0.03 0.00 81
20260510061600 45 26 7.8 11.3 0.00 0.03 0.00 81
20260510061500 45 26 7.8 11.3 0.00 0.03 0.00 81
20260510061401 45 27 7.0 10.4 0.00 0.03 0.00 81
20260510061300 45 26 7.0 10.4 0.00 0.03 0.00 82
20260510061200 45 26 7.0 10.4 0.00 0.03 0.00 82
20260510061102 45 28 7.0 10.4 0.00 0.03 0.00 82
20260510061021 45 29 7.0 10.4 0.00 0.03 0.00 82
20260510060901 45 29 7.0 10.4 0.00 0.03 0.00 83
20260510060821 45 29 7.0 10.4 0.00 0.03 0.00 83
20260510060700 44 30 7.0 10.4 0.00 0.03 0.00 83
20260510060600 44 30 6.1 11.3 0.00 0.03 0.00 83
20260510060500 44 31 6.1 11.3 0.00 0.03 0.00 83
20260510060400 44 30 7.0 11.3 0.00 0.03 0.00 83
20260510060300 44 29 7.0 11.3 0.00 0.03 0.00 83
20260510060200 44 28 6.1 11.3 0.00 0.03 0.00 83
20260510060100 44 27 7.0 11.3 0.00 0.03 0.00 83
20260510060000 44 25 7.0 11.3 0.00 0.03 0.00 83
20260510055900 44 25 6.1 11.3 0.00 0.03 0.00 83
20260510055821 44 27 6.1 11.3 0.00 0.03 0.00 83
20260510055721 44 29 6.1 11.3 0.00 0.03 0.00 84
20260510055601 44 28 6.1 10.4 0.00 0.03 0.00 84
20260510055500 44 25 6.1 10.4 0.00 0.03 0.00 84
20260510055400 44 26 5.2 10.4 0.00 0.03 0.00 84
20260510055300 44 28 5.2 10.4 0.00 0.03 0.00 84
20260510055200 44 29 5.2 10.4 0.00 0.03 0.00 84
20260510055100 44 30 5.2 10.4 0.00 0.03 0.00 84
20260510055021 44 30 5.2 10.4 0.00 0.03 0.00 84
20260510054900 44 28 6.1 10.4 0.00 0.03 0.00 85
20260510054800 44 25 6.1 10.4 0.00 0.03 0.00 85
20260510054700 44 23 5.2 9.6 0.00 0.03 0.00 85
20260510054600 44 23 5.2 9.6 0.00 0.03 0.00 85
20260510054521 44 24 5.2 9.6 0.00 0.03 0.00 85
20260510054400 44 24 5.2 9.6 0.00 0.03 0.00 85
20260510054300 44 24 5.2 9.6 0.00 0.03 0.00 85
20260510054200 44 23 5.2 9.6 0.00 0.03 0.00 85
20260510054100 44 23 5.2 9.6 0.00 0.03 0.00 85
20260510054000 44 25 5.2 9.6 0.00 0.03 0.00 85
20260510053921 44 26 5.2 9.6 0.00 0.03 0.00 85
20260510053821 44 27 5.2 8.7 0.00 0.03 0.00 85
20260510053700 43 29 5.2 8.7 0.00 0.03 0.00 85
20260510053600 43 28 5.2 8.7 0.00 0.03 0.00 86
20260510053500 43 28 5.2 8.7 0.00 0.03 0.00 85
20260510053400 43 26 5.2 8.7 0.00 0.03 0.00 86
20260510053300 43 26 5.2 8.7 0.00 0.03 0.00 86
20260510053200 43 28 5.2 8.7 0.00 0.03 0.00 86
20260510053100 43 28 6.1 8.7 0.00 0.03 0.00 86
20260510053000 43 26 6.1 8.7 0.00 0.03 0.00 86
20260510052900 43 27 6.1 9.6 0.00 0.03 0.00 86
20260510052800 43 28 6.1 9.6 0.00 0.03 0.00 86
20260510052700 43 29 6.1 9.6 0.00 0.03 0.00 86
20260510052601 43 29 6.1 9.6 0.00 0.03 0.00 86
20260510052500 43 29 6.1 9.6 0.00 0.03 0.00 86
20260510052400 43 32 6.1 9.6 0.00 0.03 0.00 86
20260510052300 43 34 6.1 9.6 0.00 0.03 0.00 86
20260510052200 43 34 6.1 9.6 0.00 0.03 0.00 86
20260510052100 43 34 6.1 9.6 0.00 0.03 0.00 86
20260510052000 43 35 6.1 10.4 0.00 0.03 0.00 87
20260510051900 43 34 6.1 10.4 0.00 0.03 0.00 87
20260510051800 43 31 6.1 10.4 0.00 0.03 0.00 87
20260510051701 43 31 6.1 10.4 0.00 0.03 0.00 87
20260510051600 43 30 6.1 10.4 0.00 0.03 0.00 87
20260510051500 43 31 6.1 10.4 0.00 0.03 0.00 87
20260510051421 43 31 6.1 10.4 0.00 0.03 0.00 87
20260510051300 43 29 6.1 10.4 0.00 0.03 0.00 87
20260510051200 43 28 5.2 10.4 0.00 0.03 0.00 87
20260510051121 43 27 5.2 10.4 0.00 0.03 0.00 87
20260510051000 43 27 5.2 10.4 0.00 0.03 0.00 88
20260510050921 43 27 5.2 10.4 0.00 0.03 0.00 88
20260510050800 43 28 5.2 10.4 0.00 0.03 0.00 88
20260510050700 43 28 4.3 10.4 0.00 0.03 0.00 88
20260510050600 43 29 4.3 7.0 0.00 0.03 0.00 88
20260510050500 43 29 5.2 7.0 0.00 0.03 0.00 88
20260510050421 43 29 5.2 7.8 0.00 0.03 0.00 88
20260510050300 43 29 5.2 10.4 0.00 0.03 0.00 88
20260510050221 43 29 5.2 10.4 0.00 0.03 0.00 88
20260510050121 43 32 5.2 10.4 0.00 0.03 0.00 88
20260510050000 43 32 5.2 10.4 0.00 0.03 0.00 88
20260510045900 43 35 5.2 10.4 0.00 0.03 0.00 88
20260510045800 43 35 5.2 10.4 0.00 0.03 0.00 88
20260510045700 43 34 6.1 10.4 0.00 0.03 0.00 88
20260510045600 43 34 6.1 10.4 0.00 0.03 0.00 88
20260510045500 43 33 6.1 10.4 0.00 0.03 0.00 88
20260510045400 43 33 6.1 10.4 0.00 0.03 0.00 88
20260510045300 43 33 6.1 9.6 0.00 0.03 0.00 89
20260510045221 43 33 6.1 9.6 0.00 0.03 0.00 89
20260510045100 43 31 6.1 9.6 0.00 0.03 0.00 89
20260510045000 43 30 7.0 9.6 0.00 0.03 0.00 89
20260510044900 43 29 7.0 9.6 0.00 0.03 0.00 89
20260510044821 43 28 6.1 9.6 0.00 0.03 0.00 89
20260510044700 43 28 6.1 9.6 0.00 0.03 0.00 89
20260510044600 43 28 6.1 9.6 0.00 0.03 0.00 89
20260510044521 43 28 6.1 9.6 0.00 0.03 0.00 89
20260510044400 43 29 6.1 9.6 0.00 0.03 0.00 89
20260510044300 43 29 6.1 9.6 0.00 0.03 0.00 89
20260510044200 42 29 6.1 9.6 0.00 0.03 0.00 90
20260510044100 43 28 6.1 8.7 0.00 0.03 0.00 90
20260510044000 43 28 6.1 8.7 0.00 0.03 0.00 90
20260510043900 43 28 6.1 8.7 0.00 0.03 0.00 90
20260510043800 43 28 6.1 8.7 0.00 0.03 0.00 90
20260510043700 43 27 6.1 8.7 0.00 0.03 0.00 90
20260510043600 43 26 6.1 8.7 0.00 0.03 0.00 90
20260510043500 42 26 6.1 8.7 0.00 0.03 0.00 90
20260510043421 42 25 6.1 8.7 0.00 0.03 0.00 90
20260510043300 42 24 5.2 8.7 0.00 0.03 0.00 90
20260510043200 42 24 6.1 8.7 0.00 0.03 0.00 90
20260510043100 42 24 6.1 8.7 0.00 0.03 0.00 90
20260510043000 42 23 6.1 7.8 0.00 0.03 0.00 90
20260510042921 42 22 6.1 9.6 0.00 0.03 0.00 90
20260510042821 42 21 6.1 9.6 0.00 0.03 0.00 90
20260510042700 42 21 6.1 9.6 0.00 0.03 0.00 90
20260510042600 42 21 6.1 9.6 0.00 0.03 0.00 90
20260510042521 42 20 6.1 9.6 0.00 0.03 0.00 90
20260510042400 42 19 6.1 9.6 0.00 0.03 0.00 90
20260510042305 43 18 7.0 9.6 0.00 0.03 0.00 90
20260510042200 42 17 7.0 9.6 0.00 0.03 0.00 90
20260510042100 43 17 7.0 9.6 0.00 0.03 0.00 90
20260510042021 43 16 7.0 10.4 0.00 0.03 0.00 90
20260510041900 43 16 7.0 10.4 0.00 0.03 0.00 90
20260510041800 43 15 7.0 10.4 0.00 0.03 0.00 89
20260510041700 43 15 7.0 10.4 0.00 0.03 0.00 89
20260510041621 43 14 7.0 10.4 0.00 0.03 0.00 89
20260510041500 43 14 7.0 10.4 0.00 0.03 0.00 89
20260510041400 43 13 7.0 10.4 0.00 0.03 0.00 89
20260510041321 43 13 7.0 10.4 0.00 0.03 0.00 89
20260510041200 43 13 7.8 10.4 0.00 0.03 0.00 89
20260510041101 43 13 7.8 11.3 0.00 0.03 0.00 89
20260510041000 43 13 7.8 11.3 0.00 0.03 0.00 89
20260510040900 43 12 7.8 11.3 0.00 0.03 0.00 89
20260510040800 43 12 7.8 11.3 0.00 0.03 0.00 89
20260510040700 43 13 7.8 11.3 0.00 0.03 0.00 89
20260510040601 43 13 7.8 11.3 0.00 0.03 0.00 89
20260510040501 43 13 7.8 11.3 0.00 0.03 0.00 89
20260510040400 43 13 7.8 11.3 0.00 0.03 0.00 89
20260510040300 43 13 7.0 11.3 0.00 0.03 0.00 89
20260510040200 43 13 7.0 11.3 0.00 0.03 0.00 89
20260510040100 43 13 7.0 10.4 0.00 0.03 0.00 89
20260510040000 43 13 7.0 10.4 0.00 0.03 0.00 89
20260510035900 43 14 7.0 10.4 0.00 0.03 0.00 89
20260510035800 43 14 7.0 10.4 0.00 0.03 0.00 89
20260510035700 43 14 7.0 10.4 0.00 0.03 0.00 89
20260510035621 43 14 7.0 10.4 0.00 0.03 0.00 89
20260510035521 43 14 7.0 10.4 0.00 0.03 0.00 89
20260510035421 43 15 7.0 10.4 0.00 0.03 0.00 89
20260510035300 43 15 7.0 10.4 0.00 0.03 0.00 89
20260510035200 43 16 7.0 10.4 0.00 0.03 0.00 89
20260510035121 43 15 7.0 10.4 0.00 0.03 0.00 89
20260510035000 43 15 7.0 10.4 0.00 0.03 0.00 89
20260510034900 43 14 7.0 10.4 0.00 0.03 0.00 89
20260510034800 43 13 7.0 9.6 0.00 0.03 0.00 89
20260510034700 43 12 7.0 9.6 0.00 0.03 0.00 89
20260510034600 43 11 6.1 9.6 0.00 0.03 0.00 89
20260510034500 43 10 6.1 9.6 0.00 0.03 0.00 89
20260510034400 43 10 6.1 9.6 0.00 0.03 0.00 89
20260510034321 43 9 6.1 9.6 0.00 0.03 0.00 89
20260510034200 43 9 6.1 8.7 0.00 0.03 0.00 89
20260510034100 43 9 6.1 8.7 0.00 0.03 0.00 89
20260510034000 43 10 6.1 8.7 0.00 0.03 0.00 89
20260510033900 43 11 6.1 8.7 0.00 0.03 0.00 89
20260510033800 43 12 6.1 10.4 0.00 0.03 0.00 88
20260510033700 43 13 6.1 10.4 0.00 0.03 0.00 89
20260510033600 43 15 6.1 10.4 0.00 0.03 0.00 88
20260510033500 43 16 6.1 10.4 0.00 0.03 0.00 89
20260510033400 43 17 6.1 10.4 0.00 0.03 0.00 89
20260510033300 43 19 6.1 10.4 0.00 0.03 0.00 89
20260510033200 43 20 6.1 10.4 0.00 0.03 0.00 89
20260510033100 43 20 6.1 10.4 0.00 0.03 0.00 89
20260510033000 43 20 7.0 10.4 0.00 0.03 0.00 89
20260510032900 43 20 7.0 10.4 0.00 0.03 0.00 89
20260510032800 43 20 7.0 10.4 0.00 0.03 0.00 89
20260510032700 43 19 7.0 9.6 0.00 0.03 0.00 89
20260510032600 43 18 7.0 9.6 0.00 0.03 0.00 89
20260510032500 43 18 7.0 9.6 0.00 0.03 0.00 89
20260510032400 43 17 7.0 9.6 0.00 0.03 0.00 89
20260510032300 43 16 7.0 9.6 0.00 0.03 0.00 89
20260510032200 43 16 7.0 9.6 0.00 0.03 0.00 89
20260510032100 43 15 7.0 9.6 0.00 0.03 0.00 89
20260510032000 43 15 7.0 9.6 0.00 0.03 0.00 89
20260510031921 43 15 7.0 9.6 0.00 0.03 0.00 89
20260510031800 43 15 7.0 9.6 0.00 0.03 0.00 88
20260510031721 43 15 7.0 9.6 0.00 0.03 0.00 88
20260510031600 43 16 7.0 9.6 0.00 0.03 0.00 88
20260510031522 43 15 7.0 9.6 0.00 0.03 0.00 88
20260510031423 43 15 7.0 8.7 0.00 0.03 0.00 88
20260510031321 43 16 7.0 8.7 0.00 0.03 0.00 88
20260510031200 43 15 7.0 8.7 0.00 0.03 0.00 88
20260510031100 43 16 7.0 8.7 0.00 0.03 0.00 88
20260510031000 43 16 7.0 8.7 0.00 0.03 0.00 88
20260510030900 43 16 7.0 8.7 0.00 0.03 0.00 88
20260510030800 43 16 7.0 8.7 0.00 0.03 0.00 88
20260510030700 43 15 7.0 8.7 0.00 0.03 0.00 88
20260510030600 44 15 7.0 9.6 0.00 0.03 0.00 88
20260510030500 44 15 7.0 9.6 0.00 0.03 0.00 88
20260510030400 44 16 7.0 9.6 0.00 0.03 0.00 88
20260510030301 44 16 7.0 9.6 0.00 0.03 0.00 88
20260510030200 44 16 7.0 9.6 0.00 0.03 0.00 88
20260510030100 44 15 7.0 10.4 0.00 0.03 0.00 87
20260510030000 44 15 7.0 10.4 0.00 0.03 0.00 87
20260510025900 44 16 7.0 10.4 0.00 0.03 0.00 87
20260510025800 44 16 7.8 10.4 0.00 0.03 0.00 87
20260510025700 44 17 7.8 10.4 0.00 0.03 0.00 87
20260510025600 44 17 7.8 10.4 0.00 0.03 0.00 88
20260510025500 44 18 7.8 10.4 0.00 0.03 0.00 88
20260510025422 44 18 7.0 10.4 0.00 0.03 0.00 88
20260510025300 44 18 7.0 10.4 0.00 0.03 0.00 88
20260510025200 44 19 7.0 10.4 0.00 0.03 0.00 88
20260510025100 44 19 7.0 9.6 0.00 0.03 0.00 87
20260510025000 44 20 7.0 9.6 0.00 0.03 0.00 88
20260510024900 44 21 6.1 9.6 0.00 0.03 0.00 87
20260510024821 44 22 6.1 9.6 0.00 0.03 0.00 87
20260510024700 44 22 6.1 9.6 0.00 0.03 0.00 87
20260510024600 44 22 6.1 8.7 0.00 0.03 0.00 87
20260510024500 44 22 6.1 7.8 0.00 0.03 0.00 87
20260510024421 44 22 6.1 7.8 0.00 0.03 0.00 87
20260510024300 44 22 6.1 7.8 0.00 0.03 0.00 87
20260510024200 44 22 6.1 7.8 0.00 0.03 0.00 87
20260510024121 44 23 6.1 7.8 0.00 0.03 0.00 87
20260510024001 44 23 6.1 8.7 0.00 0.03 0.00 87
20260510023900 44 23 6.1 8.7 0.00 0.03 0.00 87
20260510023800 44 23 6.1 8.7 0.00 0.03 0.00 86
20260510023700 44 24 6.1 8.7 0.00 0.03 0.00 86
20260510023600 44 25 6.1 8.7 0.00 0.03 0.00 87
20260510023500 44 26 6.1 8.7 0.00 0.03 0.00 87
20260510023400 44 27 6.1 8.7 0.00 0.03 0.00 86
20260510023300 44 27 6.1 8.7 0.00 0.03 0.00 86
20260510023221 44 26 7.0 9.6 0.00 0.03 0.00 86
20260510023100 44 26 7.0 9.6 0.00 0.03 0.00 86
20260510023000 44 25 7.0 9.6 0.00 0.03 0.00 86
20260510022900 44 25 7.0 9.6 0.00 0.03 0.00 86
20260510022821 44 25 7.0 9.6 0.00 0.03 0.00 86
20260510022700 44 25 7.8 11.3 0.00 0.03 0.00 86
20260510022621 44 24 7.8 11.3 0.00 0.03 0.00 86
20260510022500 44 22 7.8 11.3 0.00 0.03 0.00 86
20260510022400 44 22 7.8 11.3 0.00 0.03 0.00 86
20260510022300 44 22 7.8 11.3 0.00 0.03 0.00 86
20260510022221 44 22 8.7 11.3 0.00 0.03 0.00 86
20260510022100 45 21 8.7 13.0 0.00 0.03 0.00 86
20260510022000 45 21 8.7 13.0 0.00 0.03 0.00 86
20260510021901 45 20 8.7 13.0 0.00 0.03 0.00 86
20260510021800 45 19 8.7 13.0 0.00 0.03 0.00 86
20260510021700 45 18 8.7 13.0 0.00 0.03 0.00 86
20260510021600 45 18 8.7 13.0 0.00 0.03 0.00 86
20260510021500 45 18 8.7 13.0 0.00 0.03 0.00 86
20260510021421 45 18 8.7 13.0 0.00 0.03 0.00 86
20260510021300 45 16 8.7 13.0 0.00 0.03 0.00 86
20260510021222 45 16 7.8 13.0 0.00 0.03 0.00 86
20260510021100 45 16 7.8 12.2 0.00 0.03 0.00 86
20260510021021 45 16 7.8 12.2 0.00 0.03 0.00 86
20260510020900 45 17 7.8 12.2 0.00 0.03 0.00 86
20260510020800 45 18 7.0 10.4 0.00 0.03 0.00 86
20260510020721 45 19 7.0 10.4 0.00 0.03 0.00 86
20260510020601 45 19 7.0 10.4 0.00 0.03 0.00 86
20260510020500 45 19 7.0 10.4 0.00 0.03 0.00 86
20260510020400 45 19 7.0 10.4 0.00 0.03 0.00 85
20260510020321 45 18 7.0 12.2 0.00 0.03 0.00 85
20260510020200 45 19 7.8 12.2 0.00 0.03 0.00 86
20260510020100 45 20 7.8 13.9 0.00 0.03 0.00 85
20260510020000 45 21 7.8 13.9 0.00 0.03 0.00 85
20260510015901 45 21 7.8 13.9 0.00 0.03 0.00 85
20260510015800 45 20 8.7 13.9 0.00 0.03 0.00 85
20260510015700 45 20 8.7 13.9 0.00 0.03 0.00 85
20260510015621 45 21 8.7 13.9 0.00 0.03 0.00 85
20260510015500 45 21 8.7 13.9 0.00 0.03 0.00 85
20260510015400 45 23 7.8 13.9 0.00 0.03 0.00 85
20260510015300 45 24 7.8 13.9 0.00 0.03 0.00 85
20260510015200 45 26 7.8 13.9 0.00 0.03 0.00 85
20260510015100 45 26 7.8 13.9 0.00 0.03 0.00 85
20260510015000 45 26 7.8 13.9 0.00 0.03 0.00 85
20260510014900 45 26 7.8 13.9 0.00 0.03 0.00 85
20260510014800 45 27 7.8 13.9 0.00 0.03 0.00 85
20260510014701 45 26 7.8 13.9 0.00 0.03 0.00 85
20260510014600 45 25 7.0 13.9 0.00 0.03 0.00 85
20260510014500 45 27 7.0 13.9 0.00 0.03 0.00 86
20260510014400 45 25 7.8 13.9 0.00 0.03 0.00 86
20260510014300 45 24 7.8 13.9 0.00 0.03 0.00 86
20260510014200 45 24 7.8 13.9 0.00 0.03 0.00 86
20260510014121 45 24 7.8 13.9 0.00 0.03 0.00 86
20260510014000 46 26 7.8 13.9 0.00 0.03 0.00 86
20260510013921 45 26 7.8 13.9 0.00 0.03 0.00 86
20260510013800 46 26 7.8 13.9 0.00 0.03 0.00 86
20260510013700 46 27 7.8 13.9 0.00 0.03 0.00 86
20260510013600 46 26 7.8 13.9 0.00 0.03 0.00 86
20260510013500 46 25 8.7 13.9 0.00 0.03 0.00 86
20260510013421 46 24 8.7 15.6 0.00 0.03 0.00 86
20260510013300 46 26 8.7 15.6 0.00 0.03 0.00 86
20260510013221 46 27 8.7 15.6 0.00 0.03 0.00 86
20260510013121 46 27 8.7 15.6 0.00 0.03 0.00 86
20260510013000 46 26 8.7 15.6 0.00 0.03 0.00 86
20260510012900 46 26 8.7 15.6 0.00 0.03 0.00 87
20260510012800 46 26 8.7 15.6 0.00 0.03 0.00 86
20260510012700 46 25 8.7 15.6 0.00 0.03 0.00 86
20260510012600 46 27 8.7 15.6 0.00 0.03 0.00 86
20260510012521 46 27 8.7 15.6 0.00 0.03 0.00 86
20260510012400 46 28 7.8 13.0 0.00 0.03 0.00 87
20260510012300 46 27 7.8 13.0 0.00 0.03 0.00 87
20260510012201 46 26 7.8 13.0 0.00 0.03 0.00 87
20260510012100 46 24 7.0 13.0 0.00 0.03 0.00 87
20260510012000 46 25 7.0 12.2 0.00 0.03 0.00 87
20260510011900 46 24 7.8 12.2 0.00 0.03 0.00 87
20260510011800 46 25 7.8 13.9 0.00 0.03 0.00 87
20260510011700 46 27 7.8 13.9 0.00 0.03 0.00 87
20260510011600 46 27 7.8 13.9 0.00 0.03 0.00 87
20260510011500 46 27 7.8 13.9 0.00 0.03 0.00 87
20260510011400 46 27 7.8 13.9 0.00 0.03 0.00 87
20260510011300 46 28 7.8 13.9 0.00 0.03 0.00 87
20260510011200 46 30 7.8 13.9 0.00 0.03 0.00 87
20260510011100 46 31 7.8 13.9 0.00 0.03 0.00 87
20260510011000 46 32 7.8 13.9 0.00 0.03 0.00 87
20260510010900 46 33 7.8 13.9 0.00 0.03 0.00 87
20260510010801 46 32 7.8 11.3 0.00 0.03 0.00 87
20260510010700 46 30 7.8 13.0 0.00 0.03 0.00 87
20260510010600 46 31 7.8 13.0 0.00 0.03 0.00 87
20260510010500 46 31 7.8 13.0 0.00 0.03 0.00 87
20260510010400 46 31 7.8 13.0 0.00 0.03 0.00 87
20260510010300 46 31 7.8 13.0 0.00 0.03 0.00 87
20260510010200 46 31 7.8 13.0 0.00 0.03 0.00 87
20260510010100 46 30 7.8 13.0 0.00 0.03 0.00 87
20260510010000 46 30 7.8 13.0 0.00 0.03 0.00 87
20260510005900 46 29 7.8 13.0 0.00 0.03 0.00 87
20260510005800 46 28 7.8 13.0 0.00 0.03 0.00 87
20260510005701 46 27 7.8 13.0 0.00 0.03 0.00 87
20260510005600 46 27 7.8 13.0 0.00 0.03 0.00 87
20260510005500 46 26 7.8 13.0 0.00 0.03 0.00 87
20260510005400 46 26 7.8 13.0 0.00 0.03 0.00 87
20260510005300 46 26 7.8 13.0 0.00 0.03 0.00 88
20260510005200 46 25 7.8 13.0 0.00 0.03 0.00 88
20260510005121 46 24 7.8 13.0 0.00 0.03 0.00 88
20260510005000 46 22 7.8 13.0 0.00 0.03 0.00 87
20260510004900 46 22 7.8 11.3 0.00 0.03 0.00 88
20260510004800 46 22 7.0 11.3 0.00 0.03 0.00 88
20260510004700 46 22 7.0 11.3 0.00 0.03 0.00 88
20260510004600 46 23 7.0 12.2 0.00 0.03 0.00 88
20260510004500 46 23 7.8 12.2 0.00 0.03 0.00 88
20260510004400 46 22 7.8 12.2 0.00 0.03 0.00 88
20260510004300 46 21 7.8 12.2 0.00 0.03 0.00 88
20260510004221 46 22 7.8 12.2 0.00 0.03 0.00 88
20260510004100 46 23 7.8 12.2 0.00 0.03 0.00 88
20260510004000 46 24 7.8 12.2 0.00 0.03 0.00 88
20260510003900 46 23 7.8 12.2 0.00 0.03 0.00 88
20260510003800 46 23 7.8 12.2 0.00 0.03 0.00 88
20260510003700 46 24 7.8 12.2 0.00 0.03 0.00 88
20260510003600 46 23 7.8 12.2 0.00 0.03 0.00 88
20260510003500 46 22 7.0 12.2 0.00 0.03 0.00 88
20260510003400 46 21 7.0 12.2 0.00 0.03 0.00 88
20260510003300 46 21 7.0 12.2 0.00 0.03 0.00 88
20260510003222 46 20 7.0 10.4 0.00 0.03 0.00 88
20260510003100 46 17 7.0 10.4 0.00 0.03 0.00 88
20260510003000 46 16 7.0 10.4 0.00 0.03 0.00 88
20260510002900 46 15 7.0 10.4 0.00 0.03 0.00 88
20260510002801 46 14 7.0 10.4 0.00 0.03 0.00 88
20260510002700 46 12 7.0 10.4 0.00 0.03 0.00 88
20260510002621 46 12 7.0 10.4 0.00 0.03 0.00 88
20260510002521 46 11 7.0 10.4 0.00 0.03 0.00 88
20260510002421 46 11 7.0 10.4 0.00 0.03 0.00 88
20260510002321 46 11 7.0 10.4 0.00 0.03 0.00 88
20260510002200 46 11 7.0 10.4 0.00 0.03 0.00 88
20260510002100 46 14 7.0 10.4 0.00 0.03 0.00 88
20260510002000 46 14 7.0 10.4 0.00 0.03 0.00 88
20260510001900 46 16 7.8 10.4 0.00 0.03 0.00 88
20260510001800 46 18 7.0 10.4 0.00 0.03 0.00 88
20260510001721 46 19 7.0 10.4 0.00 0.03 0.00 88
20260510001600 46 20 7.0 10.4 0.00 0.03 0.00 88
20260510001500 46 22 7.0 10.4 0.00 0.03 0.00 88
20260510001400 46 23 7.0 10.4 0.00 0.03 0.00 88
20260510001300 46 25 7.0 11.3 0.00 0.03 0.00 88
20260510001200 46 23 7.0 11.3 0.00 0.03 0.00 88
20260510001100 46 23 7.0 11.3 0.00 0.03 0.00 88
20260510001000 46 25 6.1 11.3 0.00 0.03 0.00 88
20260510000900 46 25 6.1 11.3 0.00 0.03 0.00 88
20260510000800 46 26 6.1 11.3 0.00 0.03 0.00 88
20260510000700 46 27 6.1 11.3 0.00 0.03 0.00 88
20260510000622 46 28 6.1 11.3 0.00 0.03 0.00 88
20260510000500 46 29 7.0 11.3 0.00 0.03 0.00 88
20260510000400 46 29 7.0 11.3 0.00 0.03 0.00 88
20260510000300 46 28 6.1 11.3 0.00 0.03 0.00 88
20260510000203 46 31 6.1 10.4 0.00 0.03 0.00 88
20260510000121 46 32 7.0 10.4 0.00 0.03 0.00 88
20260510000000 46 33 7.0 10.4 0.00 0.03 0.00 88
20260509235900 46 33 7.0 10.4 0.00 0.03 0.00 88
20260509235800 46 32 7.0 12.2 0.00 0.03 0.00 88
20260509235721 46 32 7.0 12.2 0.00 0.03 0.00 88
20260509235600 46 32 7.0 12.2 0.00 0.03 0.00 88
20260509235500 46 31 7.8 12.2 0.00 0.03 0.00 88
20260509235400 46 32 7.8 12.2 0.00 0.03 0.00 88
20260509235321 46 33 7.8 12.2 0.00 0.03 0.00 88
20260509235200 46 33 7.8 12.2 0.00 0.03 0.00 89
20260509235100 46 32 7.8 12.2 0.00 0.03 0.00 89
20260509235021 46 32 7.8 12.2 0.00 0.03 0.00 89
20260509234900 46 31 7.8 12.2 0.00 0.03 0.00 89